Wetterdaten: Mittwoch, 28.01.2015
Datum Zeit Temp. Aussen +5cm Feuchte Auss Luftdruck Regen Sonnenschein Regendauer Solar Windben
28.01.2015 00:00 2,6 C 1,1 C 96 % 1020,9 hPa 0,0 l/m 0 min 0 min 0 W/m 10,5 km/h (2 Bft)
28.01.2015 00:02 2,6 C 1,1 C 96 % 1020,9 hPa 0,0 l/m 0 min 0 min 0 W/m 12,6 km/h (3 Bft)
28.01.2015 00:06 2,6 C 1,1 C 96 % 1020,9 hPa 0,0 l/m 0 min 0 min 0 W/m 10,5 km/h (2 Bft)
28.01.2015 00:08 2,6 C 1,1 C 96 % 1020,9 hPa 0,0 l/m 0 min 0 min 0 W/m 6,3 km/h (2 Bft)
28.01.2015 00:10 2,6 C 1,1 C 96 % 1020,9 hPa 0,0 l/m 0 min 0 min 0 W/m 10,5 km/h (2 Bft)
28.01.2015 00:12 2,6 C 1,1 C 96 % 1020,7 hPa 0,0 l/m 0 min 0 min 0 W/m 12,6 km/h (3 Bft)
28.01.2015 00:14 2,6 C 1,1 C 96 % 1020,9 hPa 0,0 l/m 0 min 0 min 0 W/m 12,6 km/h (3 Bft)
28.01.2015 00:16 2,6 C 1,1 C 96 % 1020,8 hPa 0,0 l/m 0 min 0 min 0 W/m 8,4 km/h (2 Bft)
28.01.2015 00:18 2,6 C 1,1 C 96 % 1020,9 hPa 0,0 l/m 0 min 0 min 0 W/m 12,6 km/h (3 Bft)
28.01.2015 00:20 2,6 C 1,1 C 96 % 1020,9 hPa 0,0 l/m 0 min 0 min 0 W/m 10,5 km/h (2 Bft)
28.01.2015 00:22 2,6 C 1,1 C 96 % 1020,8 hPa 0,0 l/m 0 min 0 min 0 W/m 8,4 km/h (2 Bft)
28.01.2015 00:24 2,6 C 1,1 C 96 % 1020,8 hPa 0,0 l/m 0 min 0 min 0 W/m 10,5 km/h (2 Bft)
28.01.2015 00:26 2,6 C 1,1 C 96 % 1020,8 hPa 0,0 l/m 0 min 0 min 0 W/m 12,6 km/h (3 Bft)
28.01.2015 00:28 2,6 C 1,1 C 96 % 1020,6 hPa 0,0 l/m 0 min 0 min 0 W/m 10,5 km/h (2 Bft)
28.01.2015 00:30 2,6 C 1,1 C 96 % 1020,7 hPa 0,0 l/m 0 min 0 min 0 W/m 8,4 km/h (2 Bft)
28.01.2015 00:32 2,6 C 1,1 C 96 % 1020,7 hPa 0,0 l/m 0 min 0 min 0 W/m 10,5 km/h (2 Bft)
28.01.2015 00:34 2,6 C 1,1 C 96 % 1020,7 hPa 0,0 l/m 0 min 0 min 0 W/m 8,4 km/h (2 Bft)
28.01.2015 00:36 2,6 C 1,1 C 96 % 1020,6 hPa 0,0 l/m 0 min 0 min 0 W/m 10,5 km/h (2 Bft)
28.01.2015 00:38 2,6 C 1,1 C 96 % 1020,7 hPa 0,0 l/m 0 min 0 min 0 W/m 8,4 km/h (2 Bft)
28.01.2015 00:40 2,6 C 1,1 C 96 % 1020,7 hPa 0,0 l/m 0 min 0 min 0 W/m 8,4 km/h (2 Bft)
28.01.2015 00:42 2,6 C 1,1 C 96 % 1020,7 hPa 0,0 l/m 0 min 0 min 0 W/m 10,5 km/h (2 Bft)
28.01.2015 00:44 2,6 C 1,1 C 96 % 1020,6 hPa 0,0 l/m 0 min 0 min 0 W/m 8,4 km/h (2 Bft)
28.01.2015 00:46 2,6 C 1,1 C 96 % 1020,6 hPa 0,0 l/m 0 min 0 min 0 W/m 8,4 km/h (2 Bft)
28.01.2015 00:48 2,6 C 1,1 C 96 % 1020,6 hPa 0,0 l/m 0 min 0 min 0 W/m 8,4 km/h (2 Bft)
28.01.2015 00:50 2,6 C 1,1 C 96 % 1020,5 hPa 0,0 l/m 0 min 0 min 0 W/m 10,5 km/h (2 Bft)
28.01.2015 00:52 2,6 C 1,1 C 96 % 1020,5 hPa 0,0 l/m 0 min 0 min 0 W/m 8,4 km/h (2 Bft)
28.01.2015 00:54 2,6 C 1,1 C 96 % 1020,5 hPa 0,0 l/m 0 min 0 min 0 W/m 10,5 km/h (2 Bft)
28.01.2015 00:56 2,6 C 1,1 C 96 % 1020,5 hPa 0,0 l/m 0 min 0 min 0 W/m 8,4 km/h (2 Bft)
28.01.2015 00:58 2,6 C 1,1 C 96 % 1020,5 hPa 0,0 l/m 0 min 0 min 0 W/m 10,5 km/h (2 Bft)
28.01.2015 01:00 2,6 C 1,7 C 96 % 1020,5 hPa 0,0 l/m 0 min 0 min 0 W/m 10,5 km/h (2 Bft)
28.01.2015 01:02 2,6 C 1,7 C 96 % 1020,5 hPa 0,0 l/m 0 min 0 min 0 W/m 8,4 km/h (2 Bft)
28.01.2015 01:04 2,6 C 1,7 C 96 % 1020,5 hPa 0,0 l/m 0 min 0 min 0 W/m 8,4 km/h (2 Bft)
28.01.2015 01:06 2,6 C 1,7 C 96 % 1020,5 hPa 0,0 l/m 0 min 0 min 0 W/m 6,3 km/h (2 Bft)
28.01.2015 01:08 2,6 C 1,1 C 96 % 1020,4 hPa 0,0 l/m 0 min 0 min 0 W/m 8,4 km/h (2 Bft)
28.01.2015 01:10 2,6 C 1,1 C 96 % 1020,4 hPa 0,0 l/m 0 min 0 min 0 W/m 10,5 km/h (2 Bft)
28.01.2015 01:12 2,6 C 1,1 C 97 % 1020,4 hPa 0,0 l/m 0 min 0 min 0 W/m 10,5 km/h (2 Bft)
28.01.2015 01:14 2,6 C 1,1 C 97 % 1020,4 hPa 0,0 l/m 0 min 0 min 0 W/m 10,5 km/h (2 Bft)
28.01.2015 01:16 2,6 C 1,1 C 97 % 1020,4 hPa 0,0 l/m 0 min 0 min 0 W/m 12,6 km/h (3 Bft)
28.01.2015 01:18 2,6 C 1,1 C 97 % 1020,4 hPa 0,0 l/m 0 min 0 min 0 W/m 8,4 km/h (2 Bft)
28.01.2015 01:20 2,6 C 1,1 C 97 % 1020,4 hPa 0,0 l/m 0 min 0 min 0 W/m 10,5 km/h (2 Bft)
28.01.2015 01:22 2,6 C 1,1 C 97 % 1020,3 hPa 0,0 l/m 0 min 0 min 0 W/m 12,6 km/h (3 Bft)
28.01.2015 01:24 2,6 C 1,1 C 97 % 1020,3 hPa 0,0 l/m 0 min 0 min 0 W/m 10,5 km/h (2 Bft)
28.01.2015 01:26 2,6 C 1,7 C 97 % 1020,3 hPa 0,0 l/m 0 min 0 min 0 W/m 14,6 km/h (3 Bft)
28.01.2015 01:28 2,6 C 1,7 C 97 % 1020,2 hPa 0,0 l/m 0 min 0 min 0 W/m 14,6 km/h (3 Bft)
28.01.2015 01:30 2,6 C 1,7 C 97 % 1020,2 hPa 0,0 l/m 0 min 0 min 0 W/m 12,6 km/h (3 Bft)
28.01.2015 01:32 2,6 C 1,7 C 97 % 1020,2 hPa 0,0 l/m 0 min 0 min 0 W/m 12,6 km/h (3 Bft)
28.01.2015 01:34 2,6 C 1,7 C 97 % 1020,2 hPa 0,0 l/m 0 min 0 min 0 W/m 14,6 km/h (3 Bft)
28.01.2015 01:36 2,6 C 1,7 C 97 % 1020,2 hPa 0,0 l/m 0 min 0 min 0 W/m 12,6 km/h (3 Bft)
28.01.2015 01:38 2,7 C 1,7 C 97 % 1020,2 hPa 0,0 l/m 0 min 0 min 0 W/m 16,7 km/h (3 Bft)
28.01.2015 01:40 2,7 C 1,7 C 97 % 1020,2 hPa 0,0 l/m 0 min 0 min 0 W/m 16,7 km/h (3 Bft)
28.01.2015 01:42 2,7 C 1,7 C 97 % 1020,0 hPa 0,0 l/m 0 min 0 min 0 W/m 12,6 km/h (3 Bft)
28.01.2015 01:44 2,7 C 1,7 C 97 % 1020,0 hPa 0,0 l/m 0 min 0 min 0 W/m 14,6 km/h (3 Bft)
28.01.2015 01:46 2,7 C 1,7 C 97 % 1020,0 hPa 0,0 l/m 0 min 0 min 0 W/m 14,6 km/h (3 Bft)
28.01.2015 01:48 2,7 C 1,7 C 97 % 1019,9 hPa 0,0 l/m 0 min 0 min 0 W/m 10,5 km/h (2 Bft)
28.01.2015 01:50 2,7 C 1,7 C 97 % 1019,9 hPa 0,0 l/m 0 min 0 min 0 W/m 8,4 km/h (2 Bft)
28.01.2015 01:52 2,7 C 1,7 C 97 % 1019,8 hPa 0,0 l/m 0 min 0 min 0 W/m 12,6 km/h (3 Bft)
28.01.2015 01:54 2,7 C 1,7 C 97 % 1019,6 hPa 0,0 l/m 0 min 0 min 0 W/m 12,6 km/h (3 Bft)
28.01.2015 01:56 2,7 C 1,1 C 97 % 1019,6 hPa 0,0 l/m 0 min 0 min 0 W/m 12,6 km/h (3 Bft)
28.01.2015 01:58 2,7 C 1,1 C 97 % 1019,5 hPa 0,0 l/m 0 min 0 min 0 W/m 8,4 km/h (2 Bft)
28.01.2015 02:00 2,7 C 1,1 C 97 % 1019,5 hPa 0,0 l/m 0 min 0 min 0 W/m 14,6 km/h (3 Bft)
28.01.2015 02:02 2,7 C 1,1 C 97 % 1019,4 hPa 0,0 l/m 0 min 0 min 0 W/m 12,6 km/h (3 Bft)
28.01.2015 02:04 2,7 C 1,7 C 97 % 1019,4 hPa 0,0 l/m 0 min 0 min 0 W/m 16,7 km/h (3 Bft)
28.01.2015 02:06 2,7 C 1,7 C 97 % 1019,3 hPa 0,0 l/m 0 min 0 min 0 W/m 10,5 km/h (2 Bft)
28.01.2015 02:08 2,7 C 1,1 C 97 % 1019,2 hPa 0,0 l/m 0 min 0 min 0 W/m 14,6 km/h (3 Bft)
28.01.2015 02:10 2,7 C 1,7 C 97 % 1019,2 hPa 0,0 l/m 0 min 0 min 0 W/m 16,7 km/h (3 Bft)
28.01.2015 02:12 2,7 C 1,7 C 97 % 1019,2 hPa 0,0 l/m 0 min 0 min 0 W/m 14,6 km/h (3 Bft)
28.01.2015 02:14 2,7 C 1,1 C 97 % 1019,2 hPa 0,0 l/m 0 min 0 min 0 W/m 16,7 km/h (3 Bft)
28.01.2015 02:16 2,7 C 1,7 C 97 % 1019,2 hPa 0,0 l/m 0 min 0 min 0 W/m 14,6 km/h (3 Bft)
28.01.2015 02:18 2,7 C 1,7 C 97 % 1019,2 hPa 0,0 l/m 0 min 0 min 0 W/m 16,7 km/h (3 Bft)
28.01.2015 02:20 2,7 C 1,7 C 97 % 1019,1 hPa 0,0 l/m 0 min 0 min 0 W/m 14,6 km/h (3 Bft)
28.01.2015 02:22 2,7 C 1,7 C 97 % 1019,1 hPa 0,0 l/m 0 min 0 min 0 W/m 16,7 km/h (3 Bft)
28.01.2015 02:24 2,7 C 1,7 C 97 % 1019,2 hPa 0,0 l/m 0 min 0 min 0 W/m 14,6 km/h (3 Bft)
28.01.2015 02:26 2,7 C 1,7 C 97 % 1019,1 hPa 0,0 l/m 0 min 0 min 0 W/m 14,6 km/h (3 Bft)
28.01.2015 02:28 2,7 C 1,7 C 97 % 1019,1 hPa 0,0 l/m 0 min 0 min 0 W/m 12,6 km/h (3 Bft)
28.01.2015 02:30 2,7 C 1,7 C 97 % 1019,1 hPa 0,0 l/m 0 min 0 min 0 W/m 12,6 km/h (3 Bft)
28.01.2015 02:32 2,7 C 1,7 C 97 % 1019,1 hPa 0,0 l/m 0 min 0 min 0 W/m 10,5 km/h (2 Bft)
28.01.2015 02:34 2,7 C 1,7 C 97 % 1019,0 hPa 0,0 l/m 0 min 0 min 0 W/m 10,5 km/h (2 Bft)
28.01.2015 02:36 2,7 C 1,7 C 97 % 1018,9 hPa 0,0 l/m 0 min 0 min 0 W/m 8,4 km/h (2 Bft)
28.01.2015 02:38 2,7 C 1,7 C 97 % 1018,8 hPa 0,0 l/m 0 min 0 min 0 W/m 10,5 km/h (2 Bft)
28.01.2015 02:40 2,7 C 1,7 C 97 % 1018,7 hPa 0,0 l/m 0 min 0 min 0 W/m 10,5 km/h (2 Bft)
28.01.2015 02:42 2,7 C 1,1 C 97 % 1018,7 hPa 0,0 l/m 0 min 0 min 0 W/m 8,4 km/h (2 Bft)
28.01.2015 02:44 2,7 C 1,7 C 97 % 1018,7 hPa 0,0 l/m 0 min 0 min 0 W/m 12,6 km/h (3 Bft)
28.01.2015 02:46 2,7 C 1,7 C 97 % 1018,6 hPa 0,0 l/m 0 min 0 min 0 W/m 8,4 km/h (2 Bft)
28.01.2015 02:48 2,7 C 1,7 C 97 % 1018,7 hPa 0,0 l/m 0 min 0 min 0 W/m 8,4 km/h (2 Bft)
28.01.2015 02:50 2,7 C 1,7 C 97 % 1018,7 hPa 0,0 l/m 0 min 0 min 0 W/m 8,4 km/h (2 Bft)
28.01.2015 02:52 2,7 C 1,1 C 97 % 1018,7 hPa 0,0 l/m 0 min 0 min 0 W/m 8,4 km/h (2 Bft)
28.01.2015 02:54 2,7 C 1,7 C 97 % 1018,6 hPa 0,0 l/m 0 min 0 min 0 W/m 12,6 km/h (3 Bft)
28.01.2015 02:56 2,7 C 1,7 C 97 % 1018,7 hPa 0,0 l/m 0 min 0 min 0 W/m 8,4 km/h (2 Bft)
28.01.2015 02:58 2,7 C 1,7 C 97 % 1018,6 hPa 0,0 l/m 0 min 0 min 0 W/m 10,5 km/h (2 Bft)
28.01.2015 03:00 2,7 C 1,7 C 97 % 1018,7 hPa 0,0 l/m 0 min 0 min 0 W/m 8,4 km/h (2 Bft)
28.01.2015 03:02 2,7 C 1,7 C 97 % 1018,7 hPa 0,0 l/m 0 min 0 min 0 W/m 8,4 km/h (2 Bft)
28.01.2015 03:04 2,7 C 1,7 C 97 % 1018,7 hPa 0,0 l/m 0 min 0 min 0 W/m 6,3 km/h (2 Bft)
28.01.2015 03:06 2,7 C 1,7 C 97 % 1018,6 hPa 0,0 l/m 0 min 0 min 0 W/m 14,6 km/h (3 Bft)
28.01.2015 03:08 2,7 C 1,7 C 97 % 1018,6 hPa 0,0 l/m 0 min 0 min 0 W/m 10,5 km/h (2 Bft)
28.01.2015 03:10 2,7 C 1,7 C 97 % 1018,5 hPa 0,0 l/m 0 min 0 min 0 W/m 8,4 km/h (2 Bft)
28.01.2015 03:12 2,7 C 1,7 C 97 % 1018,5 hPa 0,0 l/m 0 min 0 min 0 W/m 8,4 km/h (2 Bft)
28.01.2015 03:14 2,7 C 1,7 C 97 % 1018,5 hPa 0,0 l/m 0 min 0 min 0 W/m 10,5 km/h (2 Bft)
28.01.2015 03:16 2,8 C 1,7 C 97 % 1018,5 hPa 0,0 l/m 0 min 0 min 0 W/m 12,6 km/h (3 Bft)
28.01.2015 03:18 2,8 C 1,7 C 97 % 1018,5 hPa 0,0 l/m 0 min 0 min 0 W/m 10,5 km/h (2 Bft)
28.01.2015 03:20 2,8 C 1,7 C 97 % 1018,5 hPa 0,0 l/m 0 min 0 min 0 W/m 8,4 km/h (2 Bft)
28.01.2015 03:22 2,8 C 1,7 C 97 % 1018,5 hPa 0,0 l/m 0 min 0 min 0 W/m 10,5 km/h (2 Bft)
28.01.2015 03:24 2,8 C 1,7 C 97 % 1018,5 hPa 0,0 l/m 0 min 0 min 0 W/m 8,4 km/h (2 Bft)
28.01.2015 03:26 2,8 C 1,7 C 97 % 1018,4 hPa 0,0 l/m 0 min 0 min 0 W/m 12,6 km/h (3 Bft)
28.01.2015 03:28 2,8 C 1,7 C 97 % 1018,5 hPa 0,0 l/m 0 min 0 min 0 W/m 10,5 km/h (2 Bft)
28.01.2015 03:30 2,8 C 1,7 C 97 % 1018,4 hPa 0,0 l/m 0 min 0 min 0 W/m 14,6 km/h (3 Bft)
28.01.2015 03:32 2,9 C 1,7 C 97 % 1018,3 hPa 0,0 l/m 0 min 0 min 0 W/m 8,4 km/h (2 Bft)
28.01.2015 03:34 2,9 C 1,7 C 97 % 1018,4 hPa 0,0 l/m 0 min 0 min 0 W/m 8,4 km/h (2 Bft)
28.01.2015 03:36 2,9 C 1,7 C 97 % 1018,3 hPa 0,0 l/m 0 min 0 min 0 W/m 18,8 km/h (3 Bft)
28.01.2015 03:38 2,9 C 2,2 C 97 % 1018,3 hPa 0,0 l/m 0 min 0 min 0 W/m 14,6 km/h (3 Bft)
28.01.2015 03:40 2,9 C 1,7 C 97 % 1018,1 hPa 0,0 l/m 0 min 2 min 0 W/m 12,6 km/h (3 Bft)
28.01.2015 03:42 2,9 C 1,7 C 97 % 1017,9 hPa 0,0 l/m 0 min 2 min 0 W/m 14,6 km/h (3 Bft)
28.01.2015 03:44 2,9 C 2,2 C 97 % 1017,9 hPa 0,0 l/m 0 min 0 min 0 W/m 12,6 km/h (3 Bft)
28.01.2015 03:46 3,0 C 2,2 C 97 % 1017,8 hPa 0,0 l/m 0 min 0 min 0 W/m 16,7 km/h (3 Bft)
28.01.2015 03:48 3,0 C 2,2 C 97 % 1017,6 hPa 0,0 l/m 0 min 0 min 0 W/m 14,6 km/h (3 Bft)
28.01.2015 03:50 3,0 C 2,2 C 97 % 1017,5 hPa 0,0 l/m 0 min 0 min 0 W/m 16,7 km/h (3 Bft)
28.01.2015 03:52 3,1 C 2,2 C 97 % 1017,4 hPa 0,0 l/m 0 min 0 min 0 W/m 12,6 km/h (3 Bft)
28.01.2015 03:54 3,1 C 1,7 C 97 % 1017,4 hPa 0,0 l/m 0 min 0 min 0 W/m 14,6 km/h (3 Bft)
28.01.2015 03:56 3,1 C 1,7 C 97 % 1017,3 hPa 0,0 l/m 0 min 0 min 0 W/m 14,6 km/h (3 Bft)
28.01.2015 03:58 3,1 C 1,7 C 97 % 1017,2 hPa 0,0 l/m 0 min 0 min 0 W/m 12,6 km/h (3 Bft)
28.01.2015 04:00 3,1 C 1,7 C 97 % 1017,2 hPa 0,0 l/m 0 min 0 min 0 W/m 16,7 km/h (3 Bft)
28.01.2015 04:02 3,1 C 1,7 C 97 % 1017,0 hPa 0,0 l/m 0 min 0 min 0 W/m 14,6 km/h (3 Bft)
28.01.2015 04:04 3,1 C 1,7 C 97 % 1016,9 hPa 0,0 l/m 0 min 0 min 0 W/m 18,8 km/h (3 Bft)
28.01.2015 04:06 3,1 C 1,7 C 97 % 1016,9 hPa 0,0 l/m 0 min 0 min 0 W/m 20,9 km/h (4 Bft)
28.01.2015 04:08 3,2 C 1,7 C 97 % 1016,9 hPa 0,0 l/m 0 min 0 min 0 W/m 20,9 km/h (4 Bft)
28.01.2015 04:10 3,2 C 1,7 C 97 % 1017,0 hPa 0,0 l/m 0 min 0 min 0 W/m 14,6 km/h (3 Bft)
28.01.2015 04:12 3,2 C 2,2 C 97 % 1016,9 hPa 0,0 l/m 0 min 0 min 0 W/m 23,0 km/h (4 Bft)
28.01.2015 04:14 3,2 C 2,2 C 97 % 1016,6 hPa 0,0 l/m 0 min 0 min 0 W/m 16,7 km/h (3 Bft)
28.01.2015 04:16 3,2 C 2,2 C 97 % 1016,6 hPa 0,0 l/m 0 min 0 min 0 W/m 16,7 km/h (3 Bft)
28.01.2015 04:18 3,2 C 2,2 C 97 % 1016,6 hPa 0,0 l/m 0 min 0 min 0 W/m 20,9 km/h (4 Bft)
28.01.2015 04:20 3,2 C 2,2 C 97 % 1016,6 hPa 0,0 l/m 0 min 0 min 0 W/m 14,6 km/h (3 Bft)
28.01.2015 04:22 3,2 C 2,2 C 97 % 1016,7 hPa 0,0 l/m 0 min 0 min 0 W/m 14,6 km/h (3 Bft)
28.01.2015 04:24 3,2 C 2,2 C 97 % 1016,7 hPa 0,0 l/m 0 min 0 min 0 W/m 14,6 km/h (3 Bft)
28.01.2015 04:26 3,2 C 2,2 C 97 % 1016,7 hPa 0,0 l/m 0 min 0 min 0 W/m 16,7 km/h (3 Bft)
28.01.2015 04:28 3,2 C 2,2 C 97 % 1016,7 hPa 0,0 l/m 0 min 0 min 0 W/m 16,7 km/h (3 Bft)
28.01.2015 04:30 3,3 C 2,2 C 97 % 1016,6 hPa 0,0 l/m 0 min 0 min 0 W/m 12,6 km/h (3 Bft)
28.01.2015 04:32 3,3 C 2,2 C 98 % 1016,6 hPa 0,0 l/m 0 min 0 min 0 W/m 18,8 km/h (3 Bft)
28.01.2015 04:34 3,3 C 2,2 C 98 % 1016,5 hPa 0,0 l/m 0 min 0 min 0 W/m 10,5 km/h (2 Bft)
28.01.2015 04:36 3,3 C 2,2 C 98 % 1016,4 hPa 0,0 l/m 0 min 0 min 0 W/m 16,7 km/h (3 Bft)
28.01.2015 04:38 3,3 C 2,2 C 98 % 1016,3 hPa 0,0 l/m 0 min 0 min 0 W/m 18,8 km/h (3 Bft)
28.01.2015 04:40 3,3 C 2,2 C 98 % 1016,3 hPa 0,0 l/m 0 min 0 min 0 W/m 18,8 km/h (3 Bft)
28.01.2015 04:42 3,4 C 2,2 C 98 % 1016,4 hPa 0,0 l/m 0 min 0 min 0 W/m 14,6 km/h (3 Bft)
28.01.2015 04:44 3,4 C 2,2 C 98 % 1016,4 hPa 0,0 l/m 0 min 0 min 0 W/m 14,6 km/h (3 Bft)
28.01.2015 04:46 3,4 C 2,2 C 98 % 1016,4 hPa 0,0 l/m 0 min 0 min 0 W/m 14,6 km/h (3 Bft)
28.01.2015 04:48 3,4 C 2,2 C 98 % 1016,4 hPa 0,0 l/m 0 min 0 min 0 W/m 18,8 km/h (3 Bft)
28.01.2015 04:50 3,4 C 2,2 C 98 % 1016,3 hPa 0,0 l/m 0 min 0 min 0 W/m 16,7 km/h (3 Bft)
28.01.2015 04:52 3,4 C 2,2 C 98 % 1016,3 hPa 0,0 l/m 0 min 0 min 0 W/m 14,6 km/h (3 Bft)
28.01.2015 04:54 3,4 C 2,2 C 97 % 1016,2 hPa 0,0 l/m 0 min 0 min 0 W/m 18,8 km/h (3 Bft)
28.01.2015 04:56 3,4 C 2,2 C 97 % 1016,2 hPa 0,0 l/m 0 min 0 min 0 W/m 20,9 km/h (4 Bft)
28.01.2015 04:58 3,4 C 2,2 C 97 % 1016,1 hPa 0,0 l/m 0 min 0 min 0 W/m 16,7 km/h (3 Bft)
28.01.2015 05:00 3,4 C 2,2 C 97 % 1016,1 hPa 0,0 l/m 0 min 0 min 0 W/m 23,0 km/h (4 Bft)
28.01.2015 05:02 3,5 C 2,2 C 97 % 1016,1 hPa 0,0 l/m 0 min 0 min 0 W/m 12,6 km/h (3 Bft)
28.01.2015 05:04 3,5 C 2,2 C 97 % 1016,1 hPa 0,0 l/m 0 min 0 min 0 W/m 14,6 km/h (3 Bft)
28.01.2015 05:06 3,5 C 2,2 C 97 % 1016,1 hPa 0,0 l/m 0 min 0 min 0 W/m 23,0 km/h (4 Bft)
28.01.2015 05:08 3,5 C 2,2 C 97 % 1016,1 hPa 0,0 l/m 0 min 0 min 0 W/m 16,7 km/h (3 Bft)
28.01.2015 05:10 3,5 C 2,2 C 97 % 1016,1 hPa 0,0 l/m 0 min 0 min 0 W/m 20,9 km/h (4 Bft)
28.01.2015 05:12 3,5 C 2,2 C 97 % 1015,9 hPa 0,0 l/m 0 min 0 min 0 W/m 14,6 km/h (3 Bft)
28.01.2015 05:14 3,6 C 2,2 C 97 % 1016,0 hPa 0,0 l/m 0 min 0 min 0 W/m 20,9 km/h (4 Bft)
28.01.2015 05:16 3,6 C 2,2 C 97 % 1015,9 hPa 0,0 l/m 0 min 0 min 0 W/m 18,8 km/h (3 Bft)
28.01.2015 05:18 3,6 C 2,2 C 97 % 1016,0 hPa 0,0 l/m 0 min 0 min 0 W/m 18,8 km/h (3 Bft)
28.01.2015 05:20 3,6 C 2,2 C 97 % 1016,0 hPa 0,0 l/m 0 min 0 min 0 W/m 14,6 km/h (3 Bft)
28.01.2015 05:22 3,6 C 2,2 C 97 % 1015,9 hPa 0,0 l/m 0 min 0 min 0 W/m 18,8 km/h (3 Bft)
28.01.2015 05:24 3,6 C 2,2 C 97 % 1015,9 hPa 0,0 l/m 0 min 0 min 0 W/m 12,6 km/h (3 Bft)
28.01.2015 05:26 3,6 C 2,2 C 97 % 1015,8 hPa 0,0 l/m 0 min 0 min 0 W/m 18,8 km/h (3 Bft)
28.01.2015 05:28 3,6 C 2,2 C 97 % 1015,8 hPa 0,0 l/m 0 min 0 min 0 W/m 18,8 km/h (3 Bft)
28.01.2015 05:30 3,6 C 2,2 C 97 % 1015,8 hPa 0,0 l/m 0 min 0 min 0 W/m 18,8 km/h (3 Bft)
28.01.2015 05:32 3,6 C 2,2 C 97 % 1015,7 hPa 0,0 l/m 0 min 0 min 0 W/m 18,8 km/h (3 Bft)
28.01.2015 05:34 3,6 C 2,2 C 97 % 1015,7 hPa 0,0 l/m 0 min 0 min 0 W/m 16,7 km/h (3 Bft)
28.01.2015 05:36 3,6 C 2,2 C 97 % 1015,7 hPa 0,0 l/m 0 min 0 min 0 W/m 16,7 km/h (3 Bft)
28.01.2015 05:38 3,6 C 2,2 C 97 % 1015,6 hPa 0,0 l/m 0 min 0 min 0 W/m 16,7 km/h (3 Bft)
28.01.2015 05:40 3,6 C 2,2 C 98 % 1015,6 hPa 0,0 l/m 0 min 0 min 0 W/m 14,6 km/h (3 Bft)
28.01.2015 05:42 3,6 C 2,2 C 98 % 1015,5 hPa 0,0 l/m 0 min 0 min 0 W/m 16,7 km/h (3 Bft)
28.01.2015 05:44 3,6 C 2,2 C 98 % 1015,5 hPa 0,0 l/m 0 min 0 min 0 W/m 16,7 km/h (3 Bft)
28.01.2015 05:46 3,6 C 2,2 C 98 % 1015,5 hPa 0,0 l/m 0 min 0 min 0 W/m 10,5 km/h (2 Bft)
28.01.2015 05:48 3,7 C 2,2 C 98 % 1015,5 hPa 0,0 l/m 0 min 0 min 0 W/m 23,0 km/h (4 Bft)
28.01.2015 05:50 3,7 C 2,2 C 98 % 1015,4 hPa 0,0 l/m 0 min 0 min 0 W/m 10,5 km/h (2 Bft)
28.01.2015 05:52 3,7 C 2,2 C 98 % 1015,4 hPa 0,0 l/m 0 min 0 min 0 W/m 14,6 km/h (3 Bft)
28.01.2015 05:54 3,7 C 2,2 C 98 % 1015,2 hPa 0,0 l/m 0 min 0 min 0 W/m 20,9 km/h (4 Bft)
28.01.2015 05:56 3,7 C 2,2 C 98 % 1015,1 hPa 0,0 l/m 0 min 0 min 0 W/m 14,6 km/h (3 Bft)
28.01.2015 05:58 3,7 C 2,2 C 98 % 1015,1 hPa 0,0 l/m 0 min 0 min 0 W/m 18,8 km/h (3 Bft)
28.01.2015 06:00 3,7 C 2,2 C 98 % 1014,9 hPa 0,0 l/m 0 min 0 min 0 W/m 18,8 km/h (3 Bft)
28.01.2015 06:02 3,7 C 2,2 C 98 % 1014,9 hPa 0,0 l/m 0 min 0 min 0 W/m 18,8 km/h (3 Bft)
28.01.2015 06:06 3,7 C 2,2 C 98 % 1014,8 hPa 0,0 l/m 0 min 0 min 0 W/m 20,9 km/h (4 Bft)
28.01.2015 06:08 3,7 C 2,8 C 98 % 1014,8 hPa 0,0 l/m 0 min 0 min 0 W/m 16,7 km/h (3 Bft)
28.01.2015 06:10 3,7 C 2,8 C 98 % 1014,8 hPa 0,0 l/m 0 min 0 min 0 W/m 20,9 km/h (4 Bft)
28.01.2015 06:12 3,7 C 2,8 C 98 % 1014,7 hPa 0,0 l/m 0 min 0 min 0 W/m 12,6 km/h (3 Bft)
28.01.2015 06:14 3,7 C 2,8 C 98 % 1014,7 hPa 0,0 l/m 0 min 0 min 0 W/m 16,7 km/h (3 Bft)
28.01.2015 06:16 3,7 C 2,8 C 98 % 1014,6 hPa 0,0 l/m 0 min 0 min 0 W/m 18,8 km/h (3 Bft)
28.01.2015 06:18 3,7 C 2,8 C 98 % 1014,7 hPa 0,0 l/m 0 min 0 min 0 W/m 18,8 km/h (3 Bft)
28.01.2015 06:20 3,8 C 2,8 C 98 % 1014,7 hPa 0,0 l/m 0 min 0 min 0 W/m 14,6 km/h (3 Bft)
28.01.2015 06:22 3,8 C 2,8 C 98 % 1014,6 hPa 0,0 l/m 0 min 0 min 0 W/m 14,6 km/h (3 Bft)
28.01.2015 06:24 3,8 C 2,8 C 97 % 1014,6 hPa 0,0 l/m 0 min 0 min 0 W/m 27,2 km/h (4 Bft)
28.01.2015 06:26 3,8 C 2,8 C 97 % 1014,6 hPa 0,0 l/m 0 min 0 min 0 W/m 29,3 km/h (5 Bft)
28.01.2015 06:28 3,8 C 2,8 C 97 % 1014,5 hPa 0,0 l/m 0 min 0 min 0 W/m 20,9 km/h (4 Bft)
28.01.2015 06:30 3,8 C 2,8 C 97 % 1014,5 hPa 0,0 l/m 0 min 0 min 0 W/m 25,1 km/h (4 Bft)
28.01.2015 06:32 3,8 C 2,8 C 97 % 1014,5 hPa 0,0 l/m 0 min 0 min 0 W/m 23,0 km/h (4 Bft)
28.01.2015 06:34 3,9 C 2,8 C 97 % 1014,5 hPa 0,0 l/m 0 min 0 min 0 W/m 23,0 km/h (4 Bft)
28.01.2015 06:36 3,9 C 2,8 C 97 % 1014,3 hPa 0,0 l/m 0 min 0 min 0 W/m 18,8 km/h (3 Bft)
28.01.2015 06:38 3,9 C 2,8 C 97 % 1014,3 hPa 0,0 l/m 0 min 0 min 0 W/m 18,8 km/h (3 Bft)
28.01.2015 06:40 3,9 C 2,8 C 97 % 1014,4 hPa 0,0 l/m 0 min 0 min 0 W/m 20,9 km/h (4 Bft)
28.01.2015 06:42 3,9 C 2,8 C 97 % 1014,5 hPa 0,0 l/m 0 min 0 min 0 W/m 16,7 km/h (3 Bft)
28.01.2015 06:44 3,9 C 2,8 C 97 % 1014,5 hPa 0,0 l/m 0 min 0 min 0 W/m 18,8 km/h (3 Bft)
28.01.2015 06:46 3,9 C 2,8 C 97 % 1014,4 hPa 0,0 l/m 0 min 0 min 0 W/m 20,9 km/h (4 Bft)
28.01.2015 06:48 3,9 C 2,8 C 97 % 1014,4 hPa 0,0 l/m 0 min 0 min 0 W/m 31,4 km/h (5 Bft)
28.01.2015 06:50 4,0 C 2,8 C 97 % 1014,4 hPa 0,0 l/m 0 min 0 min 0 W/m 20,9 km/h (4 Bft)
28.01.2015 06:52 4,0 C 2,8 C 97 % 1014,4 hPa 0,0 l/m 0 min 0 min 0 W/m 16,7 km/h (3 Bft)
28.01.2015 06:54 4,0 C 2,8 C 97 % 1014,4 hPa 0,0 l/m 0 min 0 min 0 W/m 12,6 km/h (3 Bft)
28.01.2015 06:56 4,0 C 2,8 C 97 % 1014,4 hPa 0,0 l/m 0 min 0 min 0 W/m 16,7 km/h (3 Bft)
28.01.2015 06:58 4,0 C 2,8 C 97 % 1014,4 hPa 0,0 l/m 0 min 0 min 0 W/m 20,9 km/h (4 Bft)
28.01.2015 07:00 4,1 C 2,8 C 97 % 1014,4 hPa 0,0 l/m 0 min 0 min 0 W/m 16,7 km/h (3 Bft)
28.01.2015 07:02 4,1 C 2,8 C 97 % 1014,5 hPa 0,0 l/m 0 min 0 min 0 W/m 18,8 km/h (3 Bft)
28.01.2015 07:04 4,1 C 2,8 C 97 % 1014,5 hPa 0,0 l/m 0 min 0 min 0 W/m 25,1 km/h (4 Bft)
28.01.2015 07:06 4,1 C 2,8 C 97 % 1014,4 hPa 0,0 l/m 0 min 0 min 0 W/m 20,9 km/h (4 Bft)
28.01.2015 07:08 4,1 C 2,8 C 97 % 1014,4 hPa 0,0 l/m 0 min 0 min 0 W/m 16,7 km/h (3 Bft)
28.01.2015 07:10 4,1 C 2,8 C 97 % 1014,4 hPa 0,0 l/m 0 min 0 min 0 W/m 23,0 km/h (4 Bft)
28.01.2015 07:12 4,1 C 2,8 C 97 % 1014,3 hPa 0,0 l/m 0 min 0 min 0 W/m 23,0 km/h (4 Bft)
28.01.2015 07:14 4,1 C 2,8 C 97 % 1014,2 hPa 0,0 l/m 0 min 0 min 0 W/m 18,8 km/h (3 Bft)
28.01.2015 07:16 4,1 C 2,8 C 97 % 1014,2 hPa 0,0 l/m 0 min 0 min 0 W/m 23,0 km/h (4 Bft)
28.01.2015 07:18 4,2 C 3,3 C 97 % 1014,2 hPa 0,0 l/m 0 min 0 min 0 W/m 23,0 km/h (4 Bft)
28.01.2015 07:20 4,2 C 3,3 C 97 % 1014,2 hPa 0,0 l/m 0 min 0 min 0 W/m 23,0 km/h (4 Bft)
28.01.2015 07:22 4,2 C 3,3 C 96 % 1014,2 hPa 0,0 l/m 0 min 0 min 0 W/m 23,0 km/h (4 Bft)
28.01.2015 07:24 4,2 C 3,3 C 96 % 1014,2 hPa 0,0 l/m 0 min 0 min 0 W/m 23,0 km/h (4 Bft)
28.01.2015 07:26 4,2 C 3,3 C 96 % 1014,2 hPa 0,0 l/m 0 min 0 min 0 W/m 18,8 km/h (3 Bft)
28.01.2015 07:28 4,2 C 3,3 C 96 % 1014,2 hPa 0,0 l/m 0 min 0 min 0 W/m 25,1 km/h (4 Bft)
28.01.2015 07:30 4,2 C 3,3 C 96 % 1014,2 hPa 0,0 l/m 0 min 0 min 0 W/m 31,4 km/h (5 Bft)
28.01.2015 07:32 4,3 C 3,3 C 96 % 1014,0 hPa 0,0 l/m 0 min 0 min 0 W/m 20,9 km/h (4 Bft)
28.01.2015 07:34 4,3 C 3,3 C 96 % 1014,0 hPa 0,0 l/m 0 min 0 min 0 W/m 23,0 km/h (4 Bft)
28.01.2015 07:36 4,3 C 3,3 C 96 % 1014,0 hPa 0,0 l/m 0 min 0 min 0 W/m 16,7 km/h (3 Bft)
28.01.2015 07:38 4,3 C 3,3 C 96 % 1014,0 hPa 0,0 l/m 0 min 0 min 0 W/m 25,1 km/h (4 Bft)
28.01.2015 07:40 4,3 C 3,3 C 96 % 1013,9 hPa 0,0 l/m 0 min 0 min 0 W/m 29,3 km/h (5 Bft)
28.01.2015 07:42 4,3 C 3,3 C 96 % 1013,7 hPa 0,0 l/m 0 min 0 min 0 W/m 23,0 km/h (4 Bft)
28.01.2015 07:44 4,3 C 3,3 C 96 % 1013,7 hPa 0,0 l/m 0 min 0 min 0 W/m 23,0 km/h (4 Bft)
28.01.2015 07:46 4,3 C 3,3 C 95 % 1013,5 hPa 0,0 l/m 0 min 0 min 0 W/m 29,3 km/h (5 Bft)
28.01.2015 07:48 4,4 C 3,3 C 95 % 1013,5 hPa 0,0 l/m 0 min 0 min 0 W/m 20,9 km/h (4 Bft)
28.01.2015 07:50 4,4 C 3,3 C 95 % 1013,5 hPa 0,0 l/m 0 min 0 min 0 W/m 23,0 km/h (4 Bft)
28.01.2015 07:52 4,4 C 3,3 C 95 % 1013,5 hPa 0,0 l/m 0 min 0 min 0 W/m 29,3 km/h (5 Bft)
28.01.2015 07:54 4,4 C 3,3 C 95 % 1013,4 hPa 0,0 l/m 0 min 0 min 0 W/m 18,8 km/h (3 Bft)
28.01.2015 07:56 4,4 C 3,3 C 95 % 1013,3 hPa 0,0 l/m 0 min 0 min 0 W/m 18,8 km/h (3 Bft)
28.01.2015 07:58 4,4 C 3,3 C 95 % 1013,2 hPa 0,0 l/m 0 min 0 min 0 W/m 29,3 km/h (5 Bft)
28.01.2015 08:00 4,4 C 3,3 C 95 % 1013,2 hPa 0,0 l/m 0 min 0 min 0 W/m 23,0 km/h (4 Bft)
28.01.2015 08:02 4,5 C 3,3 C 95 % 1013,1 hPa 0,0 l/m 0 min 0 min 0 W/m 29,3 km/h (5 Bft)
28.01.2015 08:04 4,5 C 3,3 C 95 % 1013,1 hPa 0,0 l/m 0 min 0 min 0 W/m 23,0 km/h (4 Bft)
28.01.2015 08:06 4,5 C 3,3 C 94 % 1013,1 hPa 0,0 l/m 0 min 0 min 0 W/m 31,4 km/h (5 Bft)
28.01.2015 08:08 4,5 C 3,3 C 94 % 1012,9 hPa 0,0 l/m 0 min 0 min 0 W/m 25,1 km/h (4 Bft)
28.01.2015 08:10 4,6 C 3,3 C 94 % 1012,9 hPa 0,0 l/m 0 min 0 min 0 W/m 23,0 km/h (4 Bft)
28.01.2015 08:12 4,6 C 3,3 C 94 % 1012,8 hPa 0,0 l/m 0 min 0 min 0 W/m 20,9 km/h (4 Bft)
28.01.2015 08:14 4,6 C 3,3 C 94 % 1012,7 hPa 0,0 l/m 0 min 0 min 0 W/m 16,7 km/h (3 Bft)
28.01.2015 08:16 4,6 C 3,3 C 94 % 1012,8 hPa 0,0 l/m 0 min 0 min 0 W/m 20,9 km/h (4 Bft)
28.01.2015 08:18 4,6 C 3,3 C 94 % 1012,8 hPa 0,0 l/m 0 min 0 min 0 W/m 23,0 km/h (4 Bft)
28.01.2015 08:20 4,6 C 3,3 C 94 % 1012,8 hPa 0,0 l/m 0 min 0 min 0 W/m 31,4 km/h (5 Bft)
28.01.2015 08:22 4,6 C 3,3 C 94 % 1012,7 hPa 0,0 l/m 0 min 0 min 0 W/m 18,8 km/h (3 Bft)
28.01.2015 08:24 4,6 C 3,3 C 94 % 1012,7 hPa 0,0 l/m 0 min 0 min 0 W/m 27,2 km/h (4 Bft)
28.01.2015 08:26 4,7 C 3,3 C 94 % 1012,7 hPa 0,0 l/m 0 min 0 min 3 W/m 20,9 km/h (4 Bft)
28.01.2015 08:28 4,7 C 3,3 C 94 % 1012,6 hPa 0,0 l/m 0 min 0 min 5 W/m 25,1 km/h (4 Bft)
28.01.2015 08:30 4,7 C 3,3 C 94 % 1012,6 hPa 0,0 l/m 0 min 0 min 6 W/m 27,2 km/h (4 Bft)
28.01.2015 08:32 4,7 C 3,3 C 94 % 1012,5 hPa 0,0 l/m 0 min 0 min 7 W/m 20,9 km/h (4 Bft)
28.01.2015 08:34 4,7 C 3,3 C 93 % 1012,6 hPa 0,0 l/m 0 min 0 min 6 W/m 18,8 km/h (3 Bft)
28.01.2015 08:36 4,7 C 3,3 C 93 % 1012,6 hPa 0,0 l/m 0 min 0 min 5 W/m 14,6 km/h (3 Bft)
28.01.2015 08:38 4,7 C 3,3 C 93 % 1012,6 hPa 0,0 l/m 0 min 0 min 5 W/m 16,7 km/h (3 Bft)
28.01.2015 08:40 4,7 C 3,3 C 93 % 1012,6 hPa 0,0 l/m 0 min 0 min 5 W/m 23,0 km/h (4 Bft)
28.01.2015 08:42 4,7 C 3,3 C 93 % 1012,6 hPa 0,0 l/m 0 min 0 min 5 W/m 16,7 km/h (3 Bft)
28.01.2015 08:44 4,7 C 3,3 C 93 % 1012,6 hPa 0,0 l/m 0 min 0 min 5 W/m 23,0 km/h (4 Bft)
28.01.2015 08:46 4,7 C 3,3 C 93 % 1012,5 hPa 0,0 l/m 0 min 0 min 7 W/m 14,6 km/h (3 Bft)
28.01.2015 08:48 4,7 C 3,3 C 93 % 1012,4 hPa 0,0 l/m 0 min 0 min 8 W/m 14,6 km/h (3 Bft)
28.01.2015 08:50 4,7 C 3,3 C 93 % 1012,4 hPa 0,0 l/m 0 min 0 min 9 W/m 20,9 km/h (4 Bft)
28.01.2015 08:52 4,7 C 3,3 C 93 % 1012,3 hPa 0,0 l/m 0 min 0 min 10 W/m 18,8 km/h (3 Bft)
28.01.2015 08:54 4,7 C 3,3 C 93 % 1012,2 hPa 0,0 l/m 0 min 0 min 15 W/m 16,7 km/h (3 Bft)
28.01.2015 08:56 4,7 C 3,3 C 93 % 1012,2 hPa 0,0 l/m 0 min 0 min 20 W/m 20,9 km/h (4 Bft)
28.01.2015 08:58 4,7 C 3,3 C 93 % 1012,2 hPa 0,0 l/m 0 min 0 min 22 W/m 20,9 km/h (4 Bft)
28.01.2015 09:00 4,7 C 3,3 C 93 % 1012,2 hPa 0,0 l/m 0 min 0 min 23 W/m 23,0 km/h (4 Bft)
28.01.2015 09:02 4,7 C 3,3 C 93 % 1012,1 hPa 0,0 l/m 0 min 0 min 21 W/m 20,9 km/h (4 Bft)
28.01.2015 09:04 4,7 C 3,3 C 93 % 1012,1 hPa 0,0 l/m 0 min 0 min 21 W/m 18,8 km/h (3 Bft)
28.01.2015 09:06 4,7 C 3,3 C 93 % 1012,0 hPa 0,0 l/m 0 min 0 min 24 W/m 14,6 km/h (3 Bft)
28.01.2015 09:08 4,7 C 3,3 C 93 % 1011,9 hPa 0,0 l/m 0 min 0 min 26 W/m 18,8 km/h (3 Bft)
28.01.2015 09:10 4,7 C 3,3 C 93 % 1011,8 hPa 0,0 l/m 0 min 0 min 31 W/m 29,3 km/h (5 Bft)
28.01.2015 09:12 4,7 C 3,3 C 93 % 1011,8 hPa 0,0 l/m 0 min 0 min 33 W/m 20,9 km/h (4 Bft)
28.01.2015 09:14 4,7 C 3,3 C 93 % 1011,8 hPa 0,0 l/m 0 min 0 min 35 W/m 16,7 km/h (3 Bft)
28.01.2015 09:16 4,7 C 3,3 C 93 % 1011,9 hPa 0,0 l/m 0 min 0 min 34 W/m 27,2 km/h (4 Bft)
28.01.2015 09:18 4,7 C 3,3 C 93 % 1011,9 hPa 0,0 l/m 0 min 0 min 33 W/m 18,8 km/h (3 Bft)
28.01.2015 09:20 4,7 C 3,3 C 93 % 1011,9 hPa 0,0 l/m 0 min 0 min 33 W/m 25,1 km/h (4 Bft)
28.01.2015 09:22 4,7 C 3,3 C 93 % 1011,6 hPa 0,0 l/m 0 min 0 min 34 W/m 20,9 km/h (4 Bft)
28.01.2015 09:24 4,7 C 3,3 C 93 % 1011,5 hPa 0,0 l/m 0 min 0 min 39 W/m 18,8 km/h (3 Bft)
28.01.2015 09:26 4,7 C 3,3 C 93 % 1011,4 hPa 0,0 l/m 0 min 0 min 36 W/m 18,8 km/h (3 Bft)
28.01.2015 09:28 4,7 C 3,3 C 93 % 1011,4 hPa 0,0 l/m 0 min 0 min 26 W/m 25,1 km/h (4 Bft)
28.01.2015 09:30 4,7 C 3,3 C 93 % 1011,4 hPa 0,0 l/m 0 min 0 min 25 W/m 27,2 km/h (4 Bft)
28.01.2015 09:32 4,7 C 3,3 C 93 % 1011,4 hPa 0,0 l/m 0 min 0 min 26 W/m 20,9 km/h (4 Bft)
28.01.2015 09:34 4,7 C 3,3 C 93 % 1011,3 hPa 0,0 l/m 0 min 0 min 26 W/m 20,9 km/h (4 Bft)
28.01.2015 09:36 4,7 C 3,3 C 93 % 1011,4 hPa 0,0 l/m 0 min 0 min 26 W/m 25,1 km/h (4 Bft)
28.01.2015 09:38 4,7 C 3,3 C 93 % 1011,4 hPa 0,0 l/m 0 min 0 min 28 W/m 20,9 km/h (4 Bft)
28.01.2015 09:40 4,7 C 3,3 C 93 % 1011,2 hPa 0,0 l/m 0 min 0 min 32 W/m 18,8 km/h (3 Bft)
28.01.2015 09:42 4,8 C 3,3 C 93 % 1011,2 hPa 0,0 l/m 0 min 0 min 32 W/m 16,7 km/h (3 Bft)
28.01.2015 09:44 4,8 C 3,9 C 93 % 1011,2 hPa 0,0 l/m 0 min 0 min 33 W/m 20,9 km/h (4 Bft)
28.01.2015 09:46 4,8 C 3,9 C 93 % 1011,1 hPa 0,0 l/m 0 min 0 min 39 W/m 29,3 km/h (5 Bft)
28.01.2015 09:48 4,8 C 3,9 C 93 % 1011,0 hPa 0,0 l/m 0 min 0 min 48 W/m 23,0 km/h (4 Bft)
28.01.2015 09:50 4,8 C 3,9 C 93 % 1010,9 hPa 0,0 l/m 0 min 0 min 55 W/m 18,8 km/h (3 Bft)
28.01.2015 09:52 4,8 C 3,9 C 93 % 1010,9 hPa 0,0 l/m 0 min 0 min 56 W/m 20,9 km/h (4 Bft)
28.01.2015 09:54 4,9 C 3,9 C 93 % 1011,0 hPa 0,0 l/m 0 min 0 min 56 W/m 25,1 km/h (4 Bft)
28.01.2015 09:56 4,9 C 3,9 C 93 % 1010,8 hPa 0,0 l/m 0 min 0 min 59 W/m 16,7 km/h (3 Bft)
28.01.2015 09:58 4,9 C 3,9 C 93 % 1010,8 hPa 0,0 l/m 0 min 0 min 51 W/m 18,8 km/h (3 Bft)
28.01.2015 10:00 4,9 C 3,9 C 93 % 1010,8 hPa 0,0 l/m 0 min 0 min 46 W/m 18,8 km/h (3 Bft)
28.01.2015 10:02 4,9 C 3,9 C 92 % 1010,7 hPa 0,0 l/m 0 min 0 min 46 W/m 16,7 km/h (3 Bft)
28.01.2015 10:04 5,0 C 3,9 C 92 % 1010,6 hPa 0,0 l/m 0 min 0 min 44 W/m 23,0 km/h (4 Bft)
28.01.2015 10:06 5,0 C 3,9 C 92 % 1010,4 hPa 0,0 l/m 0 min 0 min 47 W/m 23,0 km/h (4 Bft)
28.01.2015 10:08 5,0 C 3,9 C 92 % 1010,3 hPa 0,0 l/m 0 min 0 min 54 W/m 25,1 km/h (4 Bft)
28.01.2015 10:10 5,0 C 3,9 C 92 % 1010,2 hPa 0,0 l/m 0 min 0 min 65 W/m 29,3 km/h (5 Bft)
28.01.2015 10:12 5,0 C 3,9 C 92 % 1010,1 hPa 0,0 l/m 0 min 0 min 77 W/m 33,5 km/h (5 Bft)
28.01.2015 10:14 5,1 C 3,9 C 92 % 1010,1 hPa 0,0 l/m 0 min 0 min 80 W/m 33,5 km/h (5 Bft)
28.01.2015 10:16 5,1 C 3,9 C 92 % 1009,9 hPa 0,0 l/m 0 min 0 min 90 W/m 29,3 km/h (5 Bft)
28.01.2015 10:18 5,1 C 4,4 C 91 % 1009,9 hPa 0,0 l/m 2 min 0 min 119 W/m 23,0 km/h (4 Bft)
28.01.2015 10:20 5,2 C 4,4 C 91 % 1009,9 hPa 0,0 l/m 0 min 0 min 88 W/m 27,2 km/h (4 Bft)
28.01.2015 10:22 5,2 C 4,4 C 91 % 1009,9 hPa 0,0 l/m 0 min 0 min 115 W/m 31,4 km/h (5 Bft)
28.01.2015 10:24 5,2 C 4,4 C 91 % 1009,9 hPa 0,0 l/m 2 min 0 min 125 W/m 35,6 km/h (5 Bft)
28.01.2015 10:26 5,3 C 4,4 C 91 % 1009,8 hPa 0,0 l/m 0 min 0 min 101 W/m 27,2 km/h (4 Bft)
28.01.2015 10:28 5,3 C 4,4 C 90 % 1009,7 hPa 0,0 l/m 0 min 0 min 100 W/m 20,9 km/h (4 Bft)
28.01.2015 10:30 5,3 C 4,4 C 91 % 1009,7 hPa 0,0 l/m 0 min 0 min 109 W/m 18,8 km/h (3 Bft)
28.01.2015 10:32 5,4 C 4,4 C 90 % 1009,6 hPa 0,0 l/m 0 min 0 min 110 W/m 27,2 km/h (4 Bft)
28.01.2015 10:34 5,4 C 4,4 C 90 % 1009,6 hPa 0,0 l/m 0 min 0 min 122 W/m 20,9 km/h (4 Bft)
28.01.2015 10:36 5,5 C 5,0 C 90 % 1009,6 hPa 0,0 l/m 2 min 0 min 137 W/m 25,1 km/h (4 Bft)
28.01.2015 10:38 5,5 C 5,0 C 90 % 1009,6 hPa 0,0 l/m 2 min 0 min 141 W/m 31,4 km/h (5 Bft)
28.01.2015 10:40 5,6 C 5,0 C 90 % 1009,6 hPa 0,0 l/m 2 min 0 min 132 W/m 31,4 km/h (5 Bft)
28.01.2015 10:42 5,6 C 5,0 C 90 % 1009,6 hPa 0,0 l/m 0 min 0 min 133 W/m 27,2 km/h (4 Bft)
28.01.2015 10:44 5,7 C 5,0 C 89 % 1009,6 hPa 0,0 l/m 0 min 0 min 120 W/m 20,9 km/h (4 Bft)
28.01.2015 10:46 5,7 C 5,0 C 89 % 1009,5 hPa 0,0 l/m 0 min 0 min 120 W/m 27,2 km/h (4 Bft)
28.01.2015 10:48 5,7 C 5,0 C 89 % 1009,4 hPa 0,0 l/m 0 min 0 min 124 W/m 33,5 km/h (5 Bft)
28.01.2015 10:50 5,8 C 5,0 C 89 % 1009,3 hPa 0,0 l/m 0 min 0 min 133 W/m 27,2 km/h (4 Bft)
28.01.2015 10:52 5,8 C 5,0 C 89 % 1009,2 hPa 0,0 l/m 2 min 0 min 145 W/m 29,3 km/h (5 Bft)
28.01.2015 10:54 5,8 C 5,0 C 89 % 1009,3 hPa 0,0 l/m 0 min 0 min 126 W/m 33,5 km/h (5 Bft)
28.01.2015 10:56 5,9 C 5,0 C 88 % 1009,3 hPa 0,0 l/m 0 min 0 min 96 W/m 37,7 km/h (5 Bft)
28.01.2015 10:58 5,9 C 5,0 C 88 % 1009,3 hPa 0,0 l/m 0 min 0 min 91 W/m 37,7 km/h (5 Bft)
28.01.2015 11:00 5,9 C 5,0 C 88 % 1009,3 hPa 0,0 l/m 0 min 0 min 95 W/m 27,2 km/h (4 Bft)
28.01.2015 11:02 5,9 C 5,0 C 88 % 1009,3 hPa 0,0 l/m 0 min 0 min 104 W/m 27,2 km/h (4 Bft)
28.01.2015 11:04 5,9 C 5,0 C 88 % 1009,2 hPa 0,0 l/m 0 min 0 min 111 W/m 29,3 km/h (5 Bft)
28.01.2015 11:06 6,0 C 5,0 C 87 % 1009,2 hPa 0,0 l/m 0 min 0 min 118 W/m 41,8 km/h (6 Bft)
28.01.2015 11:08 6,0 C 5,0 C 87 % 1009,2 hPa 0,0 l/m 0 min 0 min 110 W/m 41,8 km/h (6 Bft)
28.01.2015 11:10 6,0 C 5,0 C 87 % 1009,1 hPa 0,0 l/m 0 min 0 min 107 W/m 31,4 km/h (5 Bft)
28.01.2015 11:12 6,0 C 5,0 C 87 % 1009,1 hPa 0,0 l/m 0 min 0 min 106 W/m 29,3 km/h (5 Bft)
28.01.2015 11:14 6,0 C 5,0 C 87 % 1009,0 hPa 0,0 l/m 0 min 0 min 113 W/m 18,8 km/h (3 Bft)
28.01.2015 11:16 6,1 C 5,0 C 87 % 1008,9 hPa 0,0 l/m 0 min 0 min 124 W/m 25,1 km/h (4 Bft)
28.01.2015 11:18 6,1 C 5,0 C 87 % 1008,8 hPa 0,0 l/m 0 min 0 min 121 W/m 25,1 km/h (4 Bft)
28.01.2015 11:20 6,1 C 5,0 C 87 % 1008,7 hPa 0,0 l/m 0 min 0 min 120 W/m 35,6 km/h (5 Bft)
28.01.2015 11:22 6,1 C 5,0 C 87 % 1008,5 hPa 0,0 l/m 0 min 0 min 118 W/m 33,5 km/h (5 Bft)
28.01.2015 11:24 6,1 C 5,0 C 87 % 1008,4 hPa 0,0 l/m 0 min 0 min 126 W/m 29,3 km/h (5 Bft)
28.01.2015 11:26 6,2 C 5,0 C 87 % 1008,4 hPa 0,0 l/m 0 min 0 min 133 W/m 33,5 km/h (5 Bft)
28.01.2015 11:28 6,2 C 5,6 C 87 % 1008,3 hPa 0,0 l/m 0 min 0 min 136 W/m 27,2 km/h (4 Bft)
28.01.2015 11:30 6,2 C 5,6 C 87 % 1008,0 hPa 0,0 l/m 0 min 0 min 143 W/m 31,4 km/h (5 Bft)
28.01.2015 11:32 6,2 C 5,6 C 87 % 1008,0 hPa 0,0 l/m 0 min 0 min 150 W/m 33,5 km/h (5 Bft)
28.01.2015 11:34 6,2 C 5,6 C 86 % 1007,8 hPa 0,0 l/m 0 min 0 min 145 W/m 46,0 km/h (6 Bft)
28.01.2015 11:36 6,3 C 5,6 C 86 % 1007,7 hPa 0,0 l/m 0 min 0 min 142 W/m 33,5 km/h (5 Bft)
28.01.2015 11:38 6,3 C 5,6 C 86 % 1007,5 hPa 0,0 l/m 0 min 0 min 150 W/m 35,6 km/h (5 Bft)
28.01.2015 11:40 6,3 C 5,6 C 87 % 1007,4 hPa 0,0 l/m 0 min 0 min 155 W/m 37,7 km/h (5 Bft)
28.01.2015 11:42 6,3 C 5,6 C 86 % 1007,5 hPa 0,0 l/m 0 min 0 min 138 W/m 29,3 km/h (5 Bft)
28.01.2015 11:44 6,4 C 5,6 C 86 % 1007,5 hPa 0,0 l/m 0 min 0 min 124 W/m 18,8 km/h (3 Bft)
28.01.2015 11:46 6,4 C 5,6 C 86 % 1007,4 hPa 0,0 l/m 0 min 0 min 116 W/m 33,5 km/h (5 Bft)
28.01.2015 11:48 6,4 C 5,6 C 86 % 1007,5 hPa 0,0 l/m 0 min 0 min 110 W/m 37,7 km/h (5 Bft)
28.01.2015 11:50 6,4 C 5,6 C 86 % 1007,5 hPa 0,0 l/m 0 min 0 min 104 W/m 29,3 km/h (5 Bft)
28.01.2015 11:52 6,4 C 5,6 C 86 % 1007,6 hPa 0,0 l/m 0 min 0 min 102 W/m 29,3 km/h (5 Bft)
28.01.2015 11:54 6,4 C 5,6 C 85 % 1007,3 hPa 0,0 l/m 0 min 0 min 102 W/m 39,7 km/h (6 Bft)
28.01.2015 11:56 6,4 C 5,6 C 85 % 1007,1 hPa 0,0 l/m 0 min 0 min 116 W/m 39,7 km/h (6 Bft)
28.01.2015 11:58 6,4 C 5,6 C 85 % 1006,8 hPa 0,0 l/m 0 min 0 min 140 W/m 33,5 km/h (5 Bft)
28.01.2015 12:00 6,4 C 5,6 C 85 % 1006,7 hPa 0,0 l/m 0 min 0 min 162 W/m 54,4 km/h (7 Bft)
28.01.2015 12:02 6,4 C 5,6 C 85 % 1006,4 hPa 0,0 l/m 2 min 0 min 183 W/m 39,7 km/h (6 Bft)
28.01.2015 12:06 6,5 C 5,6 C 84 % 1006,3 hPa 0,0 l/m 2 min 0 min 198 W/m 46,0 km/h (6 Bft)
28.01.2015 12:08 6,5 C 5,6 C 84 % 1006,4 hPa 0,0 l/m 2 min 0 min 210 W/m 37,7 km/h (5 Bft)
28.01.2015 12:10 6,5 C 5,6 C 84 % 1006,1 hPa 0,0 l/m 2 min 0 min 196 W/m 37,7 km/h (5 Bft)
28.01.2015 12:12 6,6 C 5,6 C 84 % 1006,2 hPa 0,0 l/m 2 min 0 min 191 W/m 31,4 km/h (5 Bft)
28.01.2015 12:14 6,6 C 5,6 C 84 % 1006,1 hPa 0,0 l/m 2 min 0 min 195 W/m 25,1 km/h (4 Bft)
28.01.2015 12:16 6,6 C 5,6 C 84 % 1006,1 hPa 0,0 l/m 2 min 0 min 200 W/m 39,7 km/h (6 Bft)
28.01.2015 12:18 6,6 C 5,6 C 84 % 1006,0 hPa 0,0 l/m 2 min 0 min 202 W/m 29,3 km/h (5 Bft)
28.01.2015 12:20 6,6 C 5,6 C 83 % 1006,0 hPa 0,0 l/m 2 min 0 min 200 W/m 39,7 km/h (6 Bft)
28.01.2015 12:22 6,6 C 5,6 C 83 % 1006,0 hPa 0,0 l/m 2 min 0 min 196 W/m 31,4 km/h (5 Bft)
28.01.2015 12:24 6,7 C 5,6 C 83 % 1005,9 hPa 0,0 l/m 2 min 0 min 201 W/m 37,7 km/h (5 Bft)
28.01.2015 12:26 6,7 C 5,6 C 83 % 1005,9 hPa 0,0 l/m 2 min 0 min 210 W/m 29,3 km/h (5 Bft)
28.01.2015 12:28 6,7 C 6,1 C 83 % 1005,9 hPa 0,0 l/m 2 min 0 min 216 W/m 41,8 km/h (6 Bft)
28.01.2015 12:30 6,8 C 6,1 C 83 % 1005,9 hPa 0,0 l/m 2 min 0 min 211 W/m 29,3 km/h (5 Bft)
28.01.2015 12:32 6,8 C 5,6 C 82 % 1005,8 hPa 0,0 l/m 2 min 0 min 181 W/m 41,8 km/h (6 Bft)
28.01.2015 12:34 6,8 C 6,1 C 82 % 1005,5 hPa 0,0 l/m 0 min 0 min 154 W/m 46,0 km/h (6 Bft)
28.01.2015 12:36 6,8 C 5,6 C 82 % 1005,5 hPa 0,0 l/m 0 min 0 min 141 W/m 52,3 km/h (7 Bft)
28.01.2015 12:38 6,8 C 5,6 C 82 % 1005,1 hPa 0,0 l/m 0 min 0 min 149 W/m 33,5 km/h (5 Bft)
28.01.2015 12:40 6,8 C 5,6 C 82 % 1005,0 hPa 0,0 l/m 0 min 0 min 153 W/m 37,7 km/h (5 Bft)
28.01.2015 12:42 6,8 C 5,6 C 82 % 1004,8 hPa 0,0 l/m 0 min 0 min 156 W/m 25,1 km/h (4 Bft)
28.01.2015 12:44 6,8 C 5,6 C 82 % 1004,7 hPa 0,0 l/m 0 min 0 min 150 W/m 39,7 km/h (6 Bft)
28.01.2015 12:46 6,8 C 5,6 C 82 % 1004,9 hPa 0,0 l/m 0 min 0 min 141 W/m 46,0 km/h (6 Bft)
28.01.2015 12:48 6,8 C 5,6 C 81 % 1004,9 hPa 0,0 l/m 0 min 0 min 103 W/m 46,0 km/h (6 Bft)
28.01.2015 12:50 6,8 C 5,6 C 81 % 1004,9 hPa 0,0 l/m 0 min 0 min 91 W/m 37,7 km/h (5 Bft)
28.01.2015 12:52 6,8 C 5,6 C 82 % 1004,9 hPa 0,0 l/m 0 min 0 min 87 W/m 35,6 km/h (5 Bft)
28.01.2015 12:54 6,8 C 5,6 C 82 % 1004,8 hPa 0,0 l/m 0 min 0 min 87 W/m 39,7 km/h (6 Bft)
28.01.2015 12:56 6,8 C 5,6 C 82 % 1004,7 hPa 0,0 l/m 0 min 0 min 117 W/m 43,9 km/h (6 Bft)
28.01.2015 12:58 6,8 C 5,6 C 82 % 1004,6 hPa 0,0 l/m 0 min 0 min 131 W/m 35,6 km/h (5 Bft)
28.01.2015 13:00 6,8 C 5,6 C 82 % 1004,5 hPa 0,0 l/m 0 min 0 min 116 W/m 52,3 km/h (7 Bft)
28.01.2015 13:02 6,8 C 5,6 C 82 % 1004,5 hPa 0,0 l/m 0 min 0 min 120 W/m 20,9 km/h (4 Bft)
28.01.2015 13:04 6,8 C 5,6 C 82 % 1004,5 hPa 0,0 l/m 0 min 0 min 106 W/m 27,2 km/h (4 Bft)
28.01.2015 13:06 6,8 C 5,6 C 82 % 1004,4 hPa 0,0 l/m 0 min 0 min 95 W/m 43,9 km/h (6 Bft)
28.01.2015 13:08 6,8 C 5,6 C 82 % 1004,5 hPa 0,0 l/m 0 min 0 min 95 W/m 54,4 km/h (7 Bft)
28.01.2015 13:10 6,8 C 5,6 C 82 % 1004,4 hPa 0,0 l/m 0 min 0 min 94 W/m 50,2 km/h (7 Bft)
28.01.2015 13:12 6,8 C 5,6 C 82 % 1004,4 hPa 0,0 l/m 0 min 0 min 83 W/m 35,6 km/h (5 Bft)
28.01.2015 13:14 6,8 C 5,6 C 82 % 1004,4 hPa 0,0 l/m 0 min 0 min 72 W/m 54,4 km/h (7 Bft)
28.01.2015 13:16 6,8 C 5,6 C 82 % 1004,2 hPa 0,0 l/m 0 min 0 min 84 W/m 50,2 km/h (7 Bft)
28.01.2015 13:18 6,8 C 5,6 C 82 % 1004,1 hPa 0,0 l/m 0 min 0 min 104 W/m 39,7 km/h (6 Bft)
28.01.2015 13:20 6,7 C 5,6 C 82 % 1003,8 hPa 0,0 l/m 0 min 0 min 95 W/m 60,7 km/h (7 Bft)
28.01.2015 13:22 6,7 C 5,6 C 82 % 1003,8 hPa 0,0 l/m 0 min 0 min 95 W/m 25,1 km/h (4 Bft)
28.01.2015 13:24 6,7 C 5,6 C 82 % 1003,6 hPa 0,0 l/m 0 min 0 min 112 W/m 46,0 km/h (6 Bft)
28.01.2015 13:26 6,7 C 5,6 C 82 % 1003,8 hPa 0,0 l/m 0 min 0 min 93 W/m 46,0 km/h (6 Bft)
28.01.2015 13:28 6,7 C 5,6 C 82 % 1003,5 hPa 0,0 l/m 0 min 0 min 81 W/m 41,8 km/h (6 Bft)
28.01.2015 13:30 6,7 C 5,6 C 82 % 1003,5 hPa 0,0 l/m 0 min 0 min 73 W/m 35,6 km/h (5 Bft)
28.01.2015 13:32 6,7 C 5,6 C 82 % 1003,2 hPa 0,0 l/m 0 min 0 min 75 W/m 37,7 km/h (5 Bft)
28.01.2015 13:34 6,7 C 5,6 C 82 % 1003,3 hPa 0,0 l/m 0 min 0 min 81 W/m 37,7 km/h (5 Bft)
28.01.2015 13:36 6,7 C 5,6 C 82 % 1003,2 hPa 0,0 l/m 0 min 0 min 77 W/m 39,7 km/h (6 Bft)
28.01.2015 13:38 6,7 C 5,6 C 82 % 1003,0 hPa 0,0 l/m 0 min 0 min 79 W/m 33,5 km/h (5 Bft)
28.01.2015 13:40 6,7 C 5,6 C 82 % 1003,2 hPa 0,0 l/m 0 min 0 min 79 W/m 33,5 km/h (5 Bft)
28.01.2015 13:42 6,7 C 5,6 C 82 % 1002,9 hPa 0,0 l/m 0 min 0 min 75 W/m 37,7 km/h (5 Bft)
28.01.2015 13:44 6,7 C 5,6 C 82 % 1002,8 hPa 0,0 l/m 0 min 0 min 80 W/m 29,3 km/h (5 Bft)
28.01.2015 13:46 6,7 C 5,6 C 82 % 1002,8 hPa 0,0 l/m 0 min 0 min 81 W/m 35,6 km/h (5 Bft)
28.01.2015 13:48 6,7 C 5,6 C 82 % 1002,8 hPa 0,0 l/m 0 min 0 min 74 W/m 50,2 km/h (7 Bft)
28.01.2015 13:50 6,7 C 5,6 C 82 % 1002,6 hPa 0,0 l/m 0 min 0 min 92 W/m 52,3 km/h (7 Bft)
28.01.2015 13:52 6,7 C 5,6 C 82 % 1002,3 hPa 0,0 l/m 0 min 0 min 106 W/m 73,2 km/h (8 Bft)
28.01.2015 13:54 6,7 C 5,6 C 82 % 1002,1 hPa 0,0 l/m 0 min 0 min 137 W/m 50,2 km/h (7 Bft)
28.01.2015 13:56 6,7 C 5,6 C 82 % 1001,8 hPa 0,0 l/m 0 min 0 min 143 W/m 41,8 km/h (6 Bft)
28.01.2015 13:58 6,7 C 5,6 C 82 % 1001,8 hPa 0,0 l/m 0 min 0 min 130 W/m 37,7 km/h (5 Bft)
28.01.2015 14:00 6,7 C 5,6 C 82 % 1001,9 hPa 0,0 l/m 0 min 0 min 118 W/m 43,9 km/h (6 Bft)
28.01.2015 14:02 6,8 C 5,6 C 82 % 1001,8 hPa 0,0 l/m 0 min 0 min 99 W/m 31,4 km/h (5 Bft)
28.01.2015 14:04 6,8 C 5,6 C 82 % 1001,7 hPa 0,0 l/m 0 min 0 min 90 W/m 43,9 km/h (6 Bft)
28.01.2015 14:06 6,8 C 5,6 C 82 % 1001,5 hPa 0,0 l/m 0 min 0 min 90 W/m 56,5 km/h (7 Bft)
28.01.2015 14:08 6,8 C 5,6 C 81 % 1001,6 hPa 0,0 l/m 0 min 0 min 75 W/m 50,2 km/h (7 Bft)
28.01.2015 14:10 6,8 C 5,6 C 81 % 1001,4 hPa 0,0 l/m 0 min 0 min 67 W/m 43,9 km/h (6 Bft)
28.01.2015 14:12 6,8 C 5,6 C 81 % 1001,4 hPa 0,0 l/m 0 min 0 min 58 W/m 50,2 km/h (7 Bft)
28.01.2015 14:14 6,8 C 5,6 C 81 % 1001,3 hPa 0,0 l/m 0 min 0 min 45 W/m 39,7 km/h (6 Bft)
28.01.2015 14:16 6,8 C 5,6 C 81 % 1001,0 hPa 0,0 l/m 0 min 0 min 45 W/m 33,5 km/h (5 Bft)
28.01.2015 14:18 6,8 C 5,6 C 81 % 1000,9 hPa 0,0 l/m 0 min 0 min 47 W/m 41,8 km/h (6 Bft)
28.01.2015 14:20 6,8 C 5,6 C 81 % 1000,8 hPa 0,0 l/m 0 min 0 min 50 W/m 43,9 km/h (6 Bft)
28.01.2015 14:22 6,8 C 5,6 C 81 % 1000,7 hPa 0,0 l/m 0 min 0 min 55 W/m 46,0 km/h (6 Bft)
28.01.2015 14:24 6,8 C 5,6 C 81 % 1000,7 hPa 0,0 l/m 0 min 0 min 49 W/m 46,0 km/h (6 Bft)
28.01.2015 14:26 6,8 C 5,6 C 81 % 1000,6 hPa 0,0 l/m 0 min 0 min 46 W/m 35,6 km/h (5 Bft)
28.01.2015 14:28 6,8 C 5,6 C 81 % 1000,4 hPa 0,0 l/m 0 min 0 min 39 W/m 33,5 km/h (5 Bft)
28.01.2015 14:30 6,8 C 5,6 C 81 % 1000,4 hPa 0,0 l/m 0 min 0 min 34 W/m 37,7 km/h (5 Bft)
28.01.2015 14:32 6,8 C 5,6 C 81 % 1000,3 hPa 0,0 l/m 0 min 0 min 34 W/m 37,7 km/h (5 Bft)
28.01.2015 14:34 6,8 C 5,6 C 81 % 1000,2 hPa 0,0 l/m 0 min 0 min 34 W/m 39,7 km/h (6 Bft)
28.01.2015 14:36 6,8 C 5,6 C 81 % 1000,1 hPa 0,0 l/m 0 min 0 min 32 W/m 37,7 km/h (5 Bft)
28.01.2015 14:38 6,8 C 5,6 C 81 % 999,9 hPa 0,0 l/m 0 min 0 min 33 W/m 31,4 km/h (5 Bft)
28.01.2015 14:40 6,8 C 5,6 C 81 % 999,9 hPa 0,0 l/m 0 min 0 min 33 W/m 35,6 km/h (5 Bft)
28.01.2015 14:42 6,8 C 5,6 C 81 % 999,9 hPa 0,0 l/m 0 min 0 min 33 W/m 31,4 km/h (5 Bft)
28.01.2015 14:44 6,8 C 5,6 C 81 % 999,8 hPa 0,0 l/m 0 min 0 min 34 W/m 48,1 km/h (6 Bft)
28.01.2015 14:46 6,8 C 5,6 C 81 % 999,7 hPa 0,0 l/m 0 min 0 min 32 W/m 41,8 km/h (6 Bft)
28.01.2015 14:48 6,8 C 5,6 C 81 % 999,8 hPa 0,0 l/m 0 min 0 min 30 W/m 37,7 km/h (5 Bft)
28.01.2015 14:50 6,8 C 5,0 C 81 % 999,8 hPa 0,0 l/m 0 min 0 min 26 W/m 39,7 km/h (6 Bft)
28.01.2015 14:52 6,8 C 5,0 C 81 % 999,8 hPa 0,0 l/m 0 min 0 min 22 W/m 29,3 km/h (5 Bft)
28.01.2015 14:54 6,8 C 5,0 C 81 % 999,7 hPa 0,0 l/m 0 min 0 min 21 W/m 25,1 km/h (4 Bft)
28.01.2015 14:56 6,7 C 5,0 C 81 % 999,7 hPa 0,0 l/m 0 min 0 min 19 W/m 33,5 km/h (5 Bft)
28.01.2015 14:58 6,7 C 5,0 C 81 % 999,6 hPa 0,0 l/m 0 min 0 min 17 W/m 29,3 km/h (5 Bft)
28.01.2015 15:00 6,7 C 5,0 C 81 % 999,5 hPa 0,0 l/m 0 min 0 min 18 W/m 41,8 km/h (6 Bft)
28.01.2015 15:02 6,7 C 5,0 C 81 % 999,5 hPa 0,0 l/m 0 min 0 min 19 W/m 39,7 km/h (6 Bft)
28.01.2015 15:04 6,7 C 5,0 C 82 % 999,5 hPa 0,0 l/m 0 min 0 min 19 W/m 39,7 km/h (6 Bft)
28.01.2015 15:06 6,7 C 5,0 C 81 % 999,3 hPa 0,0 l/m 0 min 0 min 22 W/m 35,6 km/h (5 Bft)
28.01.2015 15:08 6,7 C 5,0 C 81 % 999,2 hPa 0,0 l/m 0 min 0 min 24 W/m 37,7 km/h (5 Bft)
28.01.2015 15:10 6,7 C 5,0 C 82 % 999,1 hPa 0,0 l/m 0 min 0 min 21 W/m 31,4 km/h (5 Bft)
28.01.2015 15:12 6,6 C 4,4 C 82 % 999,0 hPa 0,0 l/m 0 min 0 min 21 W/m 31,4 km/h (5 Bft)
28.01.2015 15:14 6,6 C 4,4 C 83 % 999,0 hPa 0,0 l/m 0 min 0 min 22 W/m 35,6 km/h (5 Bft)
28.01.2015 15:16 6,6 C 4,4 C 83 % 999,0 hPa 0,0 l/m 0 min 0 min 21 W/m 52,3 km/h (7 Bft)
28.01.2015 15:18 6,5 C 3,9 C 84 % 998,9 hPa 0,0 l/m 0 min 0 min 19 W/m 31,4 km/h (5 Bft)
28.01.2015 15:20 6,4 C 3,9 C 85 % 999,0 hPa 0,0 l/m 0 min 2 min 16 W/m 46,0 km/h (6 Bft)
28.01.2015 15:22 6,4 C 3,9 C 85 % 998,9 hPa 0,0 l/m 0 min 2 min 13 W/m 46,0 km/h (6 Bft)
28.01.2015 15:24 6,3 C 3,9 C 85 % 998,7 hPa 0,2 l/m 0 min 2 min 12 W/m 48,1 km/h (6 Bft)
28.01.2015 15:26 6,2 C 3,9 C 86 % 998,7 hPa 0,0 l/m 0 min 2 min 14 W/m 43,9 km/h (6 Bft)
28.01.2015 15:28 6,2 C 3,9 C 86 % 998,7 hPa 0,0 l/m 0 min 2 min 12 W/m 29,3 km/h (5 Bft)
28.01.2015 15:30 6,1 C 3,9 C 87 % 998,7 hPa 0,0 l/m 0 min 2 min 11 W/m 41,8 km/h (6 Bft)
28.01.2015 15:32 6,0 C 3,9 C 87 % 998,6 hPa 0,0 l/m 0 min 2 min 10 W/m 46,0 km/h (6 Bft)
28.01.2015 15:34 6,0 C 3,9 C 87 % 998,5 hPa 0,0 l/m 0 min 2 min 9 W/m 35,6 km/h (5 Bft)
28.01.2015 15:36 5,9 C 3,9 C 88 % 998,5 hPa 0,0 l/m 0 min 2 min 9 W/m 46,0 km/h (6 Bft)
28.01.2015 15:38 5,9 C 3,9 C 88 % 998,5 hPa 0,0 l/m 0 min 2 min 11 W/m 39,7 km/h (6 Bft)
28.01.2015 15:40 5,8 C 3,9 C 88 % 998,3 hPa 0,0 l/m 0 min 2 min 11 W/m 37,7 km/h (5 Bft)
28.01.2015 15:42 5,8 C 3,9 C 88 % 998,3 hPa 0,0 l/m 0 min 0 min 12 W/m 37,7 km/h (5 Bft)
28.01.2015 15:44 5,8 C 3,9 C 88 % 998,1 hPa 0,0 l/m 0 min 2 min 15 W/m 37,7 km/h (5 Bft)
28.01.2015 15:46 5,8 C 3,9 C 89 % 998,1 hPa 0,0 l/m 0 min 2 min 12 W/m 37,7 km/h (5 Bft)
28.01.2015 15:48 5,8 C 3,9 C 89 % 998,0 hPa 0,0 l/m 0 min 2 min 11 W/m 29,3 km/h (5 Bft)
28.01.2015 15:50 5,8 C 3,9 C 89 % 997,9 hPa 0,0 l/m 0 min 2 min 11 W/m 39,7 km/h (6 Bft)
28.01.2015 15:52 5,8 C 3,9 C 89 % 997,8 hPa 0,0 l/m 0 min 2 min 13 W/m 31,4 km/h (5 Bft)
28.01.2015 15:54 5,8 C 3,9 C 89 % 997,7 hPa 0,0 l/m 0 min 2 min 15 W/m 50,2 km/h (7 Bft)
28.01.2015 15:56 5,8 C 3,9 C 89 % 997,7 hPa 0,0 l/m 0 min 2 min 15 W/m 37,7 km/h (5 Bft)
28.01.2015 15:58 5,8 C 3,9 C 90 % 997,6 hPa 0,0 l/m 0 min 2 min 12 W/m 29,3 km/h (5 Bft)
28.01.2015 16:00 5,8 C 3,9 C 89 % 997,6 hPa 0,0 l/m 0 min 2 min 12 W/m 41,8 km/h (6 Bft)
28.01.2015 16:02 5,8 C 3,9 C 90 % 997,2 hPa 0,0 l/m 0 min 2 min 13 W/m 48,1 km/h (6 Bft)
28.01.2015 16:04 5,8 C 3,9 C 90 % 997,1 hPa 0,0 l/m 0 min 2 min 13 W/m 52,3 km/h (7 Bft)
28.01.2015 16:06 5,9 C 3,9 C 90 % 997,2 hPa 0,0 l/m 0 min 2 min 12 W/m 43,9 km/h (6 Bft)
28.01.2015 16:08 5,9 C 3,9 C 90 % 997,3 hPa 0,0 l/m 0 min 2 min 12 W/m 52,3 km/h (7 Bft)
28.01.2015 16:10 5,9 C 3,9 C 90 % 997,2 hPa 0,0 l/m 0 min 0 min 11 W/m 43,9 km/h (6 Bft)
28.01.2015 16:12 5,9 C 3,9 C 90 % 997,1 hPa 0,0 l/m 0 min 0 min 11 W/m 41,8 km/h (6 Bft)
28.01.2015 16:14 5,9 C 3,9 C 90 % 997,0 hPa 0,0 l/m 0 min 0 min 11 W/m 41,8 km/h (6 Bft)
28.01.2015 16:16 5,9 C 3,9 C 90 % 997,0 hPa 0,0 l/m 0 min 0 min 13 W/m 41,8 km/h (6 Bft)
28.01.2015 16:18 6,0 C 3,9 C 90 % 997,0 hPa 0,0 l/m 0 min 0 min 9 W/m 52,3 km/h (7 Bft)
28.01.2015 16:20 6,0 C 3,9 C 90 % 997,0 hPa 0,0 l/m 0 min 0 min 12 W/m 41,8 km/h (6 Bft)
28.01.2015 16:22 6,1 C 4,4 C 90 % 996,8 hPa 0,0 l/m 0 min 2 min 12 W/m 48,1 km/h (6 Bft)
28.01.2015 16:24 6,1 C 4,4 C 90 % 996,9 hPa 0,0 l/m 0 min 2 min 9 W/m 46,0 km/h (6 Bft)
28.01.2015 16:26 6,1 C 4,4 C 90 % 997,1 hPa 0,0 l/m 0 min 2 min 9 W/m 46,0 km/h (6 Bft)
28.01.2015 16:28 6,1 C 4,4 C 90 % 996,6 hPa 0,0 l/m 0 min 2 min 10 W/m 64,9 km/h (8 Bft)
28.01.2015 16:30 6,2 C 4,4 C 90 % 996,7 hPa 0,0 l/m 0 min 2 min 7 W/m 48,1 km/h (6 Bft)
28.01.2015 16:32 6,2 C 3,9 C 90 % 996,6 hPa 0,2 l/m 0 min 2 min 8 W/m 41,8 km/h (6 Bft)
28.01.2015 16:34 6,2 C 3,9 C 90 % 996,5 hPa 0,0 l/m 0 min 2 min 9 W/m 37,7 km/h (5 Bft)
28.01.2015 16:36 6,2 C 3,9 C 90 % 996,5 hPa 0,0 l/m 0 min 2 min 9 W/m 43,9 km/h (6 Bft)
28.01.2015 16:38 6,2 C 3,9 C 90 % 996,3 hPa 0,0 l/m 0 min 2 min 8 W/m 43,9 km/h (6 Bft)
28.01.2015 16:40 6,1 C 3,9 C 91 % 996,4 hPa 0,2 l/m 0 min 2 min 10 W/m 43,9 km/h (6 Bft)
28.01.2015 16:42 6,1 C 3,9 C 91 % 996,3 hPa 0,0 l/m 0 min 2 min 10 W/m 35,6 km/h (5 Bft)
28.01.2015 16:44 6,1 C 3,9 C 91 % 996,3 hPa 0,0 l/m 0 min 2 min 8 W/m 48,1 km/h (6 Bft)
28.01.2015 16:46 6,1 C 3,9 C 91 % 996,3 hPa 0,0 l/m 0 min 2 min 8 W/m 48,1 km/h (6 Bft)
28.01.2015 16:48 6,1 C 3,9 C 91 % 996,3 hPa 0,0 l/m 0 min 2 min 6 W/m 50,2 km/h (7 Bft)
28.01.2015 16:50 6,0 C 3,9 C 92 % 996,3 hPa 0,0 l/m 0 min 2 min 5 W/m 39,7 km/h (6 Bft)
28.01.2015 16:52 6,0 C 3,9 C 92 % 996,2 hPa 0,0 l/m 0 min 2 min 5 W/m 37,7 km/h (5 Bft)
28.01.2015 16:54 6,0 C 3,9 C 92 % 996,2 hPa 0,0 l/m 0 min 2 min 5 W/m 50,2 km/h (7 Bft)
28.01.2015 16:56 6,0 C 3,9 C 92 % 996,2 hPa 0,0 l/m 0 min 2 min 5 W/m 39,7 km/h (6 Bft)
28.01.2015 16:58 5,9 C 3,9 C 92 % 996,0 hPa 0,0 l/m 0 min 2 min 4 W/m 50,2 km/h (7 Bft)
28.01.2015 17:00 6,0 C 3,9 C 92 % 996,0 hPa 0,0 l/m 0 min 2 min 0 W/m 35,6 km/h (5 Bft)
28.01.2015 17:02 6,0 C 4,4 C 92 % 995,8 hPa 0,0 l/m 0 min 2 min 0 W/m 48,1 km/h (6 Bft)
28.01.2015 17:04 6,0 C 4,4 C 93 % 995,9 hPa 0,0 l/m 0 min 2 min 0 W/m 48,1 km/h (6 Bft)
28.01.2015 17:06 6,0 C 4,4 C 93 % 995,8 hPa 0,0 l/m 0 min 2 min 0 W/m 48,1 km/h (6 Bft)
28.01.2015 17:08 6,0 C 4,4 C 93 % 995,6 hPa 0,0 l/m 0 min 2 min 2 W/m 56,5 km/h (7 Bft)
28.01.2015 17:10 6,0 C 4,4 C 93 % 995,6 hPa 0,0 l/m 0 min 2 min 0 W/m 46,0 km/h (6 Bft)
28.01.2015 17:12 6,1 C 4,4 C 93 % 995,6 hPa 0,0 l/m 0 min 2 min 0 W/m 46,0 km/h (6 Bft)
28.01.2015 17:14 6,1 C 4,4 C 93 % 995,5 hPa 0,0 l/m 0 min 2 min 0 W/m 39,7 km/h (6 Bft)
28.01.2015 17:16 6,1 C 4,4 C 93 % 995,4 hPa 0,0 l/m 0 min 2 min 0 W/m 41,8 km/h (6 Bft)
28.01.2015 17:18 6,1 C 4,4 C 93 % 995,5 hPa 0,0 l/m 0 min 2 min 0 W/m 39,7 km/h (6 Bft)
28.01.2015 17:20 6,1 C 4,4 C 93 % 995,6 hPa 0,0 l/m 0 min 2 min 0 W/m 46,0 km/h (6 Bft)
28.01.2015 17:22 6,1 C 4,4 C 93 % 995,5 hPa 0,2 l/m 0 min 2 min 0 W/m 37,7 km/h (5 Bft)
28.01.2015 17:24 6,1 C 4,4 C 93 % 995,5 hPa 0,0 l/m 0 min 0 min 0 W/m 31,4 km/h (5 Bft)
28.01.2015 17:26 6,1 C 4,4 C 93 % 995,4 hPa 0,0 l/m 0 min 0 min 0 W/m 54,4 km/h (7 Bft)
28.01.2015 17:28 6,1 C 4,4 C 94 % 995,4 hPa 0,0 l/m 0 min 0 min 0 W/m 54,4 km/h (7 Bft)
28.01.2015 17:30 6,1 C 4,4 C 94 % 995,3 hPa 0,0 l/m 0 min 0 min 0 W/m 48,1 km/h (6 Bft)
28.01.2015 17:32 6,1 C 4,4 C 94 % 995,0 hPa 0,0 l/m 0 min 0 min 0 W/m 43,9 km/h (6 Bft)
28.01.2015 17:34 6,1 C 4,4 C 94 % 995,0 hPa 0,0 l/m 0 min 0 min 0 W/m 52,3 km/h (7 Bft)
28.01.2015 17:36 6,1 C 4,4 C 94 % 995,2 hPa 0,0 l/m 0 min 0 min 0 W/m 41,8 km/h (6 Bft)
28.01.2015 17:38 6,1 C 4,4 C 94 % 995,1 hPa 0,0 l/m 0 min 2 min 0 W/m 50,2 km/h (7 Bft)
28.01.2015 17:40 6,2 C 4,4 C 94 % 995,1 hPa 0,0 l/m 0 min 2 min 0 W/m 46,0 km/h (6 Bft)
28.01.2015 17:42 6,2 C 4,4 C 94 % 995,1 hPa 0,0 l/m 0 min 2 min 0 W/m 27,2 km/h (4 Bft)
28.01.2015 17:44 6,2 C 4,4 C 94 % 995,0 hPa 0,0 l/m 0 min 2 min 0 W/m 43,9 km/h (6 Bft)
28.01.2015 17:46 6,2 C 4,4 C 94 % 994,9 hPa 0,0 l/m 0 min 2 min 0 W/m 41,8 km/h (6 Bft)
28.01.2015 17:48 6,3 C 4,4 C 94 % 995,0 hPa 0,0 l/m 0 min 2 min 0 W/m 41,8 km/h (6 Bft)
28.01.2015 17:50 6,3 C 4,4 C 94 % 995,0 hPa 0,0 l/m 0 min 2 min 0 W/m 46,0 km/h (6 Bft)
28.01.2015 17:52 6,3 C 4,4 C 94 % 994,9 hPa 0,0 l/m 0 min 2 min 0 W/m 41,8 km/h (6 Bft)
28.01.2015 17:54 6,3 C 4,4 C 94 % 995,0 hPa 0,2 l/m 0 min 2 min 0 W/m 48,1 km/h (6 Bft)
28.01.2015 17:56 6,4 C 4,4 C 94 % 995,0 hPa 0,2 l/m 0 min 2 min 0 W/m 58,6 km/h (7 Bft)
28.01.2015 17:58 6,4 C 4,4 C 94 % 995,1 hPa 0,2 l/m 0 min 2 min 0 W/m 46,0 km/h (6 Bft)
28.01.2015 18:00 6,4 C 4,4 C 94 % 995,1 hPa 0,0 l/m 0 min 2 min 0 W/m 37,7 km/h (5 Bft)
28.01.2015 18:02 6,4 C 4,4 C 94 % 995,5 hPa 0,2 l/m 0 min 2 min 0 W/m 66,9 km/h (8 Bft)
28.01.2015 18:06 6,4 C 4,4 C 94 % 996,5 hPa 0,4 l/m 0 min 2 min 0 W/m 41,8 km/h (6 Bft)
28.01.2015 18:08 6,2 C 3,9 C 94 % 996,5 hPa 0,2 l/m 0 min 2 min 0 W/m 54,4 km/h (7 Bft)
28.01.2015 18:10 6,1 C 3,9 C 94 % 996,6 hPa 0,0 l/m 0 min 2 min 0 W/m 43,9 km/h (6 Bft)
28.01.2015 18:12 5,9 C 3,3 C 94 % 996,6 hPa 0,2 l/m 0 min 2 min 0 W/m 41,8 km/h (6 Bft)
28.01.2015 18:14 5,7 C 3,3 C 93 % 996,7 hPa 0,0 l/m 0 min 2 min 0 W/m 33,5 km/h (5 Bft)
28.01.2015 18:16 5,5 C 3,3 C 93 % 997,0 hPa 0,0 l/m 0 min 2 min 0 W/m 31,4 km/h (5 Bft)
28.01.2015 18:18 5,4 C 2,8 C 93 % 997,2 hPa 0,2 l/m 0 min 2 min 0 W/m 41,8 km/h (6 Bft)
28.01.2015 18:20 5,2 C 2,8 C 93 % 997,2 hPa 0,0 l/m 0 min 2 min 0 W/m 33,5 km/h (5 Bft)
28.01.2015 18:22 5,1 C 2,8 C 93 % 997,2 hPa 0,0 l/m 0 min 2 min 0 W/m 31,4 km/h (5 Bft)
28.01.2015 18:24 4,9 C 2,8 C 93 % 997,2 hPa 0,2 l/m 0 min 2 min 0 W/m 33,5 km/h (5 Bft)
28.01.2015 18:26 4,7 C 2,2 C 93 % 997,4 hPa 0,0 l/m 0 min 2 min 0 W/m 33,5 km/h (5 Bft)
28.01.2015 18:28 4,6 C 2,2 C 93 % 997,3 hPa 0,2 l/m 0 min 2 min 0 W/m 31,4 km/h (5 Bft)
28.01.2015 18:30 4,4 C 2,2 C 93 % 997,3 hPa 0,0 l/m 0 min 2 min 0 W/m 33,5 km/h (5 Bft)
28.01.2015 18:32 4,3 C 2,2 C 92 % 997,4 hPa 0,0 l/m 0 min 2 min 0 W/m 29,3 km/h (5 Bft)
28.01.2015 18:34 4,2 C 2,2 C 93 % 997,4 hPa 0,0 l/m 0 min 2 min 0 W/m 29,3 km/h (5 Bft)
28.01.2015 18:36 4,1 C 2,2 C 93 % 997,6 hPa 0,0 l/m 0 min 2 min 0 W/m 31,4 km/h (5 Bft)
28.01.2015 18:38 3,9 C 1,7 C 92 % 997,6 hPa 0,2 l/m 0 min 2 min 0 W/m 31,4 km/h (5 Bft)
28.01.2015 18:40 3,9 C 1,7 C 93 % 997,6 hPa 0,0 l/m 0 min 2 min 0 W/m 27,2 km/h (4 Bft)
28.01.2015 18:42 3,8 C 1,7 C 93 % 997,6 hPa 0,2 l/m 0 min 2 min 0 W/m 23,0 km/h (4 Bft)
28.01.2015 18:44 3,7 C 1,7 C 93 % 997,2 hPa 0,0 l/m 0 min 2 min 0 W/m 20,9 km/h (4 Bft)
28.01.2015 18:46 3,6 C 1,7 C 93 % 997,3 hPa 0,0 l/m 0 min 2 min 0 W/m 20,9 km/h (4 Bft)
28.01.2015 18:48 3,5 C 1,7 C 93 % 997,3 hPa 0,0 l/m 0 min 2 min 0 W/m 20,9 km/h (4 Bft)
28.01.2015 18:50 3,4 C 1,7 C 93 % 997,2 hPa 0,0 l/m 0 min 2 min 0 W/m 18,8 km/h (3 Bft)
28.01.2015 18:52 3,4 C 1,7 C 93 % 997,3 hPa 0,0 l/m 0 min 0 min 0 W/m 14,6 km/h (3 Bft)
28.01.2015 18:54 3,3 C 1,7 C 93 % 997,2 hPa 0,0 l/m 0 min 0 min 0 W/m 20,9 km/h (4 Bft)
28.01.2015 18:56 3,2 C 1,7 C 93 % 997,3 hPa 0,0 l/m 0 min 0 min 0 W/m 18,8 km/h (3 Bft)
28.01.2015 18:58 3,2 C 1,7 C 93 % 997,3 hPa 0,0 l/m 0 min 0 min 0 W/m 16,7 km/h (3 Bft)
28.01.2015 19:00 3,2 C 1,7 C 93 % 997,4 hPa 0,0 l/m 0 min 0 min 0 W/m 12,6 km/h (3 Bft)
28.01.2015 19:02 3,1 C 1,7 C 93 % 997,4 hPa 0,0 l/m 0 min 0 min 0 W/m 14,6 km/h (3 Bft)
28.01.2015 19:04 3,1 C 1,7 C 93 % 997,4 hPa 0,0 l/m 0 min 0 min 0 W/m 18,8 km/h (3 Bft)
28.01.2015 19:06 3,1 C 1,7 C 93 % 997,4 hPa 0,0 l/m 0 min 0 min 0 W/m 18,8 km/h (3 Bft)
28.01.2015 19:08 3,1 C 1,7 C 93 % 997,4 hPa 0,0 l/m 0 min 0 min 0 W/m 18,8 km/h (3 Bft)
28.01.2015 19:10 3,0 C 1,7 C 93 % 997,4 hPa 0,0 l/m 0 min 0 min 0 W/m 20,9 km/h (4 Bft)
28.01.2015 19:12 3,0 C 1,7 C 94 % 997,3 hPa 0,0 l/m 0 min 0 min 0 W/m 14,6 km/h (3 Bft)
28.01.2015 19:14 3,0 C 1,7 C 94 % 997,3 hPa 0,0 l/m 0 min 0 min 0 W/m 20,9 km/h (4 Bft)
28.01.2015 19:16 3,0 C 1,7 C 94 % 997,3 hPa 0,0 l/m 0 min 0 min 0 W/m 23,0 km/h (4 Bft)
28.01.2015 19:18 2,9 C 1,7 C 94 % 997,3 hPa 0,0 l/m 0 min 0 min 0 W/m 18,8 km/h (3 Bft)
28.01.2015 19:20 2,9 C 1,7 C 94 % 997,3 hPa 0,0 l/m 0 min 0 min 0 W/m 20,9 km/h (4 Bft)
28.01.2015 19:22 2,9 C 1,7 C 94 % 997,4 hPa 0,0 l/m 0 min 0 min 0 W/m 20,9 km/h (4 Bft)
28.01.2015 19:24 2,9 C 1,7 C 94 % 997,4 hPa 0,0 l/m 0 min 0 min 0 W/m 20,9 km/h (4 Bft)
28.01.2015 19:26 2,9 C 1,7 C 94 % 997,4 hPa 0,0 l/m 0 min 0 min 0 W/m 18,8 km/h (3 Bft)
28.01.2015 19:28 2,9 C 1,7 C 94 % 997,4 hPa 0,0 l/m 0 min 0 min 0 W/m 16,7 km/h (3 Bft)
28.01.2015 19:30 2,9 C 1,7 C 94 % 997,4 hPa 0,0 l/m 0 min 0 min 0 W/m 25,1 km/h (4 Bft)
28.01.2015 19:32 2,9 C 1,7 C 94 % 997,4 hPa 0,0 l/m 0 min 0 min 0 W/m 27,2 km/h (4 Bft)
28.01.2015 19:34 2,9 C 1,7 C 94 % 997,4 hPa 0,0 l/m 0 min 0 min 0 W/m 27,2 km/h (4 Bft)
28.01.2015 19:36 2,9 C 1,7 C 94 % 997,5 hPa 0,0 l/m 0 min 0 min 0 W/m 29,3 km/h (5 Bft)
28.01.2015 19:38 2,9 C 1,7 C 94 % 997,5 hPa 0,0 l/m 0 min 0 min 0 W/m 20,9 km/h (4 Bft)
28.01.2015 19:40 2,9 C 1,7 C 94 % 997,6 hPa 0,0 l/m 0 min 0 min 0 W/m 29,3 km/h (5 Bft)
28.01.2015 19:42 2,9 C 1,7 C 94 % 997,7 hPa 0,0 l/m 0 min 0 min 0 W/m 16,7 km/h (3 Bft)
28.01.2015 19:44 2,9 C 1,7 C 95 % 997,7 hPa 0,0 l/m 0 min 0 min 0 W/m 23,0 km/h (4 Bft)
28.01.2015 19:46 2,9 C 1,7 C 95 % 997,6 hPa 0,0 l/m 0 min 0 min 0 W/m 27,2 km/h (4 Bft)
28.01.2015 19:48 2,9 C 1,7 C 95 % 997,6 hPa 0,0 l/m 0 min 0 min 0 W/m 23,0 km/h (4 Bft)
28.01.2015 19:50 2,9 C 1,7 C 95 % 997,6 hPa 0,0 l/m 0 min 0 min 0 W/m 25,1 km/h (4 Bft)
28.01.2015 19:52 2,9 C 1,7 C 95 % 997,7 hPa 0,0 l/m 0 min 0 min 0 W/m 23,0 km/h (4 Bft)
28.01.2015 19:54 2,9 C 1,7 C 95 % 997,7 hPa 0,0 l/m 0 min 0 min 0 W/m 27,2 km/h (4 Bft)
28.01.2015 19:56 2,9 C 1,7 C 95 % 997,7 hPa 0,0 l/m 0 min 0 min 0 W/m 20,9 km/h (4 Bft)
28.01.2015 19:58 2,9 C 1,7 C 95 % 997,8 hPa 0,0 l/m 0 min 0 min 0 W/m 16,7 km/h (3 Bft)
28.01.2015 20:00 2,9 C 1,7 C 95 % 997,8 hPa 0,0 l/m 0 min 0 min 0 W/m 23,0 km/h (4 Bft)
28.01.2015 20:02 2,9 C 1,7 C 95 % 997,7 hPa 0,0 l/m 0 min 0 min 0 W/m 29,3 km/h (5 Bft)
28.01.2015 20:04 2,9 C 1,7 C 95 % 997,7 hPa 0,0 l/m 0 min 0 min 0 W/m 20,9 km/h (4 Bft)
28.01.2015 20:06 2,9 C 1,7 C 95 % 997,7 hPa 0,0 l/m 0 min 0 min 0 W/m 20,9 km/h (4 Bft)
28.01.2015 20:08 2,9 C 1,7 C 95 % 997,8 hPa 0,0 l/m 0 min 0 min 0 W/m 18,8 km/h (3 Bft)
28.01.2015 20:10 2,9 C 1,7 C 95 % 997,7 hPa 0,0 l/m 0 min 0 min 0 W/m 23,0 km/h (4 Bft)
28.01.2015 20:12 2,9 C 1,7 C 95 % 997,7 hPa 0,0 l/m 0 min 0 min 0 W/m 29,3 km/h (5 Bft)
28.01.2015 20:14 2,9 C 2,2 C 95 % 997,8 hPa 0,0 l/m 0 min 0 min 0 W/m 31,4 km/h (5 Bft)
28.01.2015 20:16 2,9 C 1,7 C 95 % 997,7 hPa 0,0 l/m 0 min 0 min 0 W/m 29,3 km/h (5 Bft)
28.01.2015 20:18 3,0 C 2,2 C 95 % 997,8 hPa 0,0 l/m 0 min 0 min 0 W/m 29,3 km/h (5 Bft)
28.01.2015 20:20 3,0 C 1,7 C 95 % 997,7 hPa 0,0 l/m 0 min 0 min 0 W/m 27,2 km/h (4 Bft)
28.01.2015 20:22 3,0 C 1,7 C 95 % 997,8 hPa 0,0 l/m 0 min 0 min 0 W/m 29,3 km/h (5 Bft)
28.01.2015 20:24 3,0 C 1,7 C 95 % 997,8 hPa 0,0 l/m 0 min 0 min 0 W/m 35,6 km/h (5 Bft)
28.01.2015 20:26 3,0 C 1,7 C 95 % 997,7 hPa 0,0 l/m 0 min 0 min 0 W/m 27,2 km/h (4 Bft)
28.01.2015 20:28 3,0 C 1,7 C 95 % 997,8 hPa 0,0 l/m 0 min 0 min 0 W/m 25,1 km/h (4 Bft)
28.01.2015 20:30 3,0 C 1,7 C 95 % 997,8 hPa 0,0 l/m 0 min 0 min 0 W/m 35,6 km/h (5 Bft)
28.01.2015 20:32 3,0 C 1,7 C 95 % 997,8 hPa 0,0 l/m 0 min 0 min 0 W/m 23,0 km/h (4 Bft)
28.01.2015 20:34 3,0 C 1,7 C 95 % 997,9 hPa 0,0 l/m 0 min 0 min 0 W/m 23,0 km/h (4 Bft)
28.01.2015 20:36 3,0 C 1,7 C 95 % 997,9 hPa 0,0 l/m 0 min 0 min 0 W/m 20,9 km/h (4 Bft)
28.01.2015 20:38 2,9 C 1,1 C 95 % 997,9 hPa 0,0 l/m 0 min 0 min 0 W/m 20,9 km/h (4 Bft)
28.01.2015 20:40 2,9 C 1,1 C 95 % 997,9 hPa 0,0 l/m 0 min 0 min 0 W/m 31,4 km/h (5 Bft)
28.01.2015 20:42 2,9 C 1,1 C 95 % 997,9 hPa 0,0 l/m 0 min 0 min 0 W/m 18,8 km/h (3 Bft)
28.01.2015 20:44 2,9 C 1,1 C 95 % 997,9 hPa 0,0 l/m 0 min 0 min 0 W/m 23,0 km/h (4 Bft)
28.01.2015 20:46 2,9 C 1,1 C 95 % 997,9 hPa 0,0 l/m 0 min 0 min 0 W/m 23,0 km/h (4 Bft)
28.01.2015 20:48 2,9 C 1,1 C 95 % 998,0 hPa 0,0 l/m 0 min 0 min 0 W/m 25,1 km/h (4 Bft)
28.01.2015 20:50 2,9 C 1,1 C 95 % 998,0 hPa 0,0 l/m 0 min 0 min 0 W/m 18,8 km/h (3 Bft)
28.01.2015 20:52 2,8 C 1,1 C 95 % 998,1 hPa 0,0 l/m 0 min 0 min 0 W/m 23,0 km/h (4 Bft)
28.01.2015 20:54 2,8 C 1,1 C 94 % 998,0 hPa 0,0 l/m 0 min 0 min 0 W/m 29,3 km/h (5 Bft)
28.01.2015 20:56 2,8 C 1,1 C 94 % 998,0 hPa 0,0 l/m 0 min 0 min 0 W/m 20,9 km/h (4 Bft)
28.01.2015 20:58 2,8 C 1,1 C 94 % 998,0 hPa 0,0 l/m 0 min 0 min 0 W/m 25,1 km/h (4 Bft)
28.01.2015 21:00 2,8 C 1,1 C 94 % 998,0 hPa 0,0 l/m 0 min 0 min 0 W/m 31,4 km/h (5 Bft)
28.01.2015 21:02 2,8 C 1,1 C 94 % 998,0 hPa 0,0 l/m 0 min 0 min 0 W/m 27,2 km/h (4 Bft)
28.01.2015 21:04 2,8 C 1,1 C 94 % 998,0 hPa 0,0 l/m 0 min 0 min 0 W/m 27,2 km/h (4 Bft)
28.01.2015 21:06 2,8 C 1,1 C 94 % 998,0 hPa 0,0 l/m 0 min 0 min 0 W/m 23,0 km/h (4 Bft)
28.01.2015 21:08 2,8 C 1,1 C 94 % 998,0 hPa 0,0 l/m 0 min 0 min 0 W/m 31,4 km/h (5 Bft)
28.01.2015 21:10 2,8 C 1,1 C 94 % 998,0 hPa 0,0 l/m 0 min 0 min 0 W/m 31,4 km/h (5 Bft)
28.01.2015 21:12 2,8 C 1,7 C 94 % 998,0 hPa 0,0 l/m 0 min 0 min 0 W/m 23,0 km/h (4 Bft)
28.01.2015 21:14 2,8 C 1,7 C 94 % 998,0 hPa 0,0 l/m 0 min 0 min 0 W/m 37,7 km/h (5 Bft)
28.01.2015 21:16 2,8 C 1,7 C 94 % 998,0 hPa 0,0 l/m 0 min 0 min 0 W/m 31,4 km/h (5 Bft)
28.01.2015 21:18 2,8 C 1,7 C 94 % 997,9 hPa 0,0 l/m 0 min 0 min 0 W/m 31,4 km/h (5 Bft)
28.01.2015 21:20 2,8 C 1,7 C 94 % 997,9 hPa 0,0 l/m 0 min 0 min 0 W/m 29,3 km/h (5 Bft)
28.01.2015 21:22 2,8 C 1,7 C 94 % 997,9 hPa 0,0 l/m 0 min 0 min 0 W/m 27,2 km/h (4 Bft)
28.01.2015 21:24 2,8 C 1,7 C 94 % 997,9 hPa 0,0 l/m 0 min 0 min 0 W/m 35,6 km/h (5 Bft)
28.01.2015 21:26 2,8 C 1,7 C 94 % 997,9 hPa 0,0 l/m 0 min 0 min 0 W/m 31,4 km/h (5 Bft)
28.01.2015 21:28 2,8 C 1,7 C 94 % 998,0 hPa 0,0 l/m 0 min 0 min 0 W/m 23,0 km/h (4 Bft)
28.01.2015 21:30 2,8 C 1,7 C 94 % 997,9 hPa 0,0 l/m 0 min 0 min 0 W/m 23,0 km/h (4 Bft)
28.01.2015 21:32 2,8 C 1,7 C 94 % 997,9 hPa 0,0 l/m 0 min 0 min 0 W/m 23,0 km/h (4 Bft)
28.01.2015 21:34 2,8 C 1,7 C 94 % 997,9 hPa 0,0 l/m 0 min 0 min 0 W/m 20,9 km/h (4 Bft)
28.01.2015 21:36 2,7 C 1,1 C 94 % 997,9 hPa 0,0 l/m 0 min 0 min 0 W/m 23,0 km/h (4 Bft)
28.01.2015 21:38 2,7 C 1,7 C 94 % 997,9 hPa 0,0 l/m 0 min 0 min 0 W/m 27,2 km/h (4 Bft)
28.01.2015 21:40 2,7 C 1,1 C 94 % 997,8 hPa 0,0 l/m 0 min 0 min 0 W/m 25,1 km/h (4 Bft)
28.01.2015 21:42 2,7 C 1,7 C 94 % 997,9 hPa 0,0 l/m 0 min 0 min 0 W/m 29,3 km/h (5 Bft)
28.01.2015 21:44 2,7 C 1,7 C 94 % 997,9 hPa 0,0 l/m 0 min 0 min 0 W/m 25,1 km/h (4 Bft)
28.01.2015 21:46 2,7 C 1,7 C 93 % 997,9 hPa 0,0 l/m 0 min 0 min 0 W/m 23,0 km/h (4 Bft)
28.01.2015 21:48 2,7 C 1,7 C 93 % 997,8 hPa 0,0 l/m 0 min 0 min 0 W/m 27,2 km/h (4 Bft)
28.01.2015 21:50 2,7 C 1,7 C 93 % 997,8 hPa 0,0 l/m 0 min 0 min 0 W/m 29,3 km/h (5 Bft)
28.01.2015 21:52 2,7 C 1,7 C 93 % 997,8 hPa 0,0 l/m 0 min 0 min 0 W/m 23,0 km/h (4 Bft)
28.01.2015 21:54 2,7 C 1,7 C 93 % 997,8 hPa 0,0 l/m 0 min 0 min 0 W/m 25,1 km/h (4 Bft)
28.01.2015 21:56 2,7 C 1,7 C 93 % 997,8 hPa 0,0 l/m 0 min 0 min 0 W/m 29,3 km/h (5 Bft)
28.01.2015 21:58 2,7 C 1,7 C 93 % 997,8 hPa 0,0 l/m 0 min 0 min 0 W/m 27,2 km/h (4 Bft)
28.01.2015 22:00 2,7 C 1,7 C 93 % 997,8 hPa 0,0 l/m 0 min 0 min 0 W/m 23,0 km/h (4 Bft)
28.01.2015 22:02 2,7 C 1,1 C 93 % 997,8 hPa 0,0 l/m 0 min 0 min 0 W/m 20,9 km/h (4 Bft)
28.01.2015 22:04 2,7 C 1,1 C 92 % 997,8 hPa 0,0 l/m 0 min 0 min 0 W/m 27,2 km/h (4 Bft)
28.01.2015 22:06 2,7 C 1,1 C 92 % 997,8 hPa 0,0 l/m 0 min 0 min 0 W/m 27,2 km/h (4 Bft)
28.01.2015 22:08 2,7 C 1,1 C 92 % 997,8 hPa 0,0 l/m 0 min 0 min 0 W/m 23,0 km/h (4 Bft)
28.01.2015 22:10 2,7 C 1,1 C 92 % 997,8 hPa 0,0 l/m 0 min 0 min 0 W/m 25,1 km/h (4 Bft)
28.01.2015 22:12 2,7 C 1,1 C 92 % 997,8 hPa 0,0 l/m 0 min 0 min 0 W/m 23,0 km/h (4 Bft)
28.01.2015 22:14 2,7 C 1,1 C 92 % 997,8 hPa 0,0 l/m 0 min 0 min 0 W/m 29,3 km/h (5 Bft)
28.01.2015 22:16 2,7 C 1,1 C 92 % 997,8 hPa 0,0 l/m 0 min 2 min 0 W/m 35,6 km/h (5 Bft)
28.01.2015 22:18 2,7 C 1,1 C 92 % 997,8 hPa 0,0 l/m 0 min 2 min 0 W/m 37,7 km/h (5 Bft)
28.01.2015 22:20 2,7 C 1,1 C 91 % 997,8 hPa 0,0 l/m 0 min 2 min 0 W/m 25,1 km/h (4 Bft)
28.01.2015 22:22 2,7 C 1,1 C 91 % 997,8 hPa 0,0 l/m 0 min 2 min 0 W/m 27,2 km/h (4 Bft)
28.01.2015 22:24 2,7 C 1,1 C 91 % 997,8 hPa 0,0 l/m 0 min 0 min 0 W/m 27,2 km/h (4 Bft)
28.01.2015 22:26 2,7 C 1,1 C 91 % 997,8 hPa 0,0 l/m 0 min 0 min 0 W/m 20,9 km/h (4 Bft)
28.01.2015 22:28 2,8 C 1,1 C 91 % 997,8 hPa 0,0 l/m 0 min 0 min 0 W/m 35,6 km/h (5 Bft)
28.01.2015 22:30 2,8 C 1,1 C 90 % 997,9 hPa 0,0 l/m 0 min 0 min 0 W/m 39,7 km/h (6 Bft)
28.01.2015 22:32 2,8 C 1,7 C 90 % 998,0 hPa 0,0 l/m 0 min 2 min 0 W/m 46,0 km/h (6 Bft)
28.01.2015 22:34 2,8 C 1,7 C 90 % 998,0 hPa 0,0 l/m 0 min 0 min 0 W/m 46,0 km/h (6 Bft)
28.01.2015 22:36 2,8 C 1,1 C 89 % 997,9 hPa 0,0 l/m 0 min 2 min 0 W/m 35,6 km/h (5 Bft)
28.01.2015 22:38 2,8 C 1,1 C 89 % 997,8 hPa 0,0 l/m 0 min 2 min 0 W/m 39,7 km/h (6 Bft)
28.01.2015 22:40 2,8 C 1,1 C 89 % 997,8 hPa 0,0 l/m 0 min 2 min 0 W/m 29,3 km/h (5 Bft)
28.01.2015 22:42 2,8 C 1,1 C 89 % 997,8 hPa 0,0 l/m 0 min 2 min 0 W/m 31,4 km/h (5 Bft)
28.01.2015 22:44 2,8 C 1,1 C 89 % 997,7 hPa 0,0 l/m 0 min 2 min 0 W/m 33,5 km/h (5 Bft)
28.01.2015 22:46 2,7 C 1,1 C 89 % 997,8 hPa 0,0 l/m 0 min 2 min 0 W/m 20,9 km/h (4 Bft)
28.01.2015 22:48 2,7 C 0,6 C 89 % 997,8 hPa 0,0 l/m 0 min 2 min 0 W/m 27,2 km/h (4 Bft)
28.01.2015 22:50 2,7 C 0,6 C 89 % 997,7 hPa 0,0 l/m 0 min 2 min 0 W/m 31,4 km/h (5 Bft)
28.01.2015 22:52 2,7 C 0,6 C 89 % 997,7 hPa 0,0 l/m 0 min 2 min 0 W/m 29,3 km/h (5 Bft)
28.01.2015 22:54 2,6 C 0,6 C 89 % 997,6 hPa 0,0 l/m 0 min 2 min 0 W/m 23,0 km/h (4 Bft)
28.01.2015 22:56 2,6 C 0,6 C 89 % 997,6 hPa 0,0 l/m 0 min 0 min 0 W/m 27,2 km/h (4 Bft)
28.01.2015 22:58 2,6 C 0,6 C 89 % 997,5 hPa 0,0 l/m 0 min 0 min 0 W/m 23,0 km/h (4 Bft)
28.01.2015 23:00 2,5 C 0,6 C 89 % 997,5 hPa 0,0 l/m 0 min 0 min 0 W/m 35,6 km/h (5 Bft)
28.01.2015 23:02 2,4 C 0,6 C 89 % 997,4 hPa 0,0 l/m 0 min 0 min 0 W/m 29,3 km/h (5 Bft)
28.01.2015 23:04 2,4 C 0,6 C 89 % 997,4 hPa 0,0 l/m 0 min 0 min 0 W/m 27,2 km/h (4 Bft)
28.01.2015 23:06 2,4 C 0,6 C 89 % 997,4 hPa 0,0 l/m 0 min 0 min 0 W/m 25,1 km/h (4 Bft)
28.01.2015 23:08 2,4 C 0,6 C 90 % 997,4 hPa 0,0 l/m 0 min 0 min 0 W/m 25,1 km/h (4 Bft)
28.01.2015 23:10 2,3 C 0,6 C 90 % 997,4 hPa 0,0 l/m 0 min 0 min 0 W/m 27,2 km/h (4 Bft)
28.01.2015 23:12 2,3 C 0,6 C 90 % 997,4 hPa 0,0 l/m 0 min 0 min 0 W/m 31,4 km/h (5 Bft)
28.01.2015 23:14 2,3 C 0,6 C 90 % 997,4 hPa 0,0 l/m 0 min 0 min 0 W/m 29,3 km/h (5 Bft)
28.01.2015 23:16 2,3 C 0,6 C 90 % 997,3 hPa 0,0 l/m 0 min 0 min 0 W/m 27,2 km/h (4 Bft)
28.01.2015 23:18 2,3 C 0,6 C 90 % 997,4 hPa 0,0 l/m 0 min 0 min 0 W/m 27,2 km/h (4 Bft)
28.01.2015 23:20 2,2 C 0,6 C 90 % 997,3 hPa 0,0 l/m 0 min 0 min 0 W/m 31,4 km/h (5 Bft)
28.01.2015 23:22 2,2 C 0,6 C 90 % 997,4 hPa 0,0 l/m 0 min 0 min 0 W/m 33,5 km/h (5 Bft)
28.01.2015 23:24 2,2 C 0,6 C 90 % 997,4 hPa 0,0 l/m 0 min 0 min 0 W/m 29,3 km/h (5 Bft)
28.01.2015 23:26 2,2 C 0,6 C 90 % 997,3 hPa 0,0 l/m 0 min 0 min 0 W/m 35,6 km/h (5 Bft)
28.01.2015 23:28 2,2 C 0,6 C 90 % 997,4 hPa 0,0 l/m 0 min 0 min 0 W/m 35,6 km/h (5 Bft)
28.01.2015 23:30 2,2 C 0,6 C 90 % 997,3 hPa 0,0 l/m 0 min 0 min 0 W/m 29,3 km/h (5 Bft)
28.01.2015 23:32 2,2 C 0,6 C 90 % 997,4 hPa 0,0 l/m 0 min 0 min 0 W/m 29,3 km/h (5 Bft)
28.01.2015 23:34 2,2 C 0,6 C 91 % 997,4 hPa 0,0 l/m 0 min 0 min 0 W/m 31,4 km/h (5 Bft)
28.01.2015 23:36 2,2 C 0,6 C 91 % 997,5 hPa 0,0 l/m 0 min 0 min 0 W/m 31,4 km/h (5 Bft)
28.01.2015 23:38 2,2 C 0,6 C 91 % 997,6 hPa 0,0 l/m 0 min 0 min 0 W/m 31,4 km/h (5 Bft)
28.01.2015 23:40 2,2 C 0,6 C 91 % 997,7 hPa 0,0 l/m 0 min 2 min 0 W/m 25,1 km/h (4 Bft)
28.01.2015 23:42 2,2 C 1,1 C 91 % 997,7 hPa 0,0 l/m 0 min 2 min 0 W/m 37,7 km/h (5 Bft)
28.01.2015 23:44 2,2 C 1,1 C 91 % 997,7 hPa 0,0 l/m 0 min 2 min 0 W/m 41,8 km/h (6 Bft)
28.01.2015 23:46 2,2 C 0,6 C 91 % 997,7 hPa 0,0 l/m 0 min 2 min 0 W/m 29,3 km/h (5 Bft)
28.01.2015 23:48 2,2 C 0,6 C 91 % 997,7 hPa 0,0 l/m 0 min 2 min 0 W/m 27,2 km/h (4 Bft)
28.01.2015 23:50 2,3 C 0,6 C 91 % 997,7 hPa 0,2 l/m 0 min 2 min 0 W/m 46,0 km/h (6 Bft)
28.01.2015 23:52 2,3 C 0,6 C 91 % 997,7 hPa 0,0 l/m 0 min 2 min 0 W/m 52,3 km/h (7 Bft)
28.01.2015 23:54 2,2 C 0,6 C 91 % 997,7 hPa 0,0 l/m 0 min 2 min 0 W/m 52,3 km/h (7 Bft)
28.01.2015 23:56 2,2 C 0,6 C 91 % 997,7 hPa 0,0 l/m 0 min 2 min 0 W/m 37,7 km/h (5 Bft)
28.01.2015 23:58 2,2 C 0,6 C 91 % 997,7 hPa 0,0 l/m 0 min 2 min 0 W/m 31,4 km/h (5 Bft)
_ Min-Zeit 23:20 22:48 12:48 17:46 - - - - 00:08
Minimum _ 2,2 C 0,6 C 81 % 994,9 hPa - - - - 6,3 km/h (2 Bft)
_ Max-Zeit 12:30 12:28 04:32 00:00 18:06 10:18 03:40 12:28 13:52
Maximum _ 6,8 C 6,1 C 98 % 1020,9 hPa 0,4 l/m 2 min 2 min 216 W/m 73,2 km/h
S (8 Bft)
Durchschnitt _ 4,3 C 3,0 C 92 % 1007,0 hPa #3,6 l/m #42 min. #3:56 h 69 W/m 26,8 km/h (4 Bft)
© 2015 W. Hausmann